KC5DAQ-24 Weather Reports


Display with metric or nautical units.
time (UTC)temp
F
wind
direction
speed
MPH
gust
MPH
rain 1hr
in
rain 24hr
in
rain mn
in
humidity
%
barometer
mb
20260906080302 83 0 0.0 2.0 0.00 0.00 0.00 85 1010.5
20260906080203 83 0 0.0 2.0 0.00 0.00 0.00 85 1010.6
20260906080104 83 0 0.0 3.0 0.00 0.00 0.00 85 1010.6
20260906080004 83 0 0.0 3.0 0.00 0.00 0.00 85 1010.6
20260906075902 83 0 0.0 3.0 0.00 0.00 0.00 84 1010.6
20260906075802 83 0 1.0 3.0 0.00 0.00 0.00 84 1010.6
20260906075703 83 0 0.0 3.0 0.00 0.00 0.00 85 1010.6
20260906075603 83 0 0.0 3.0 0.00 0.00 0.00 84 1010.6
20260906075504 83 0 0.0 3.0 0.00 0.00 0.00 84 1010.6
20260906075402 83 0 1.0 3.0 0.00 0.00 0.00 84 1010.6
20260906075306 83 0 2.0 3.0 0.00 0.00 0.00 84 1010.6
20260906075203 83 0 1.0 3.0 0.00 0.00 0.00 84 1010.6
20260906075102 83 0 1.0 3.0 0.00 0.00 0.00 84 1010.6
20260906075004 83 0 1.0 2.0 0.00 0.00 0.00 84 1010.6
20260906074902 83 0 1.0 2.0 0.00 0.00 0.00 84 1010.6
20260906074803 83 0 0.0 2.0 0.00 0.00 0.00 84 1010.5
20260906074703 83 0 0.0 0.0 0.00 0.00 0.00 84 1010.6
20260906074604 83 0 0.0 0.0 0.00 0.00 0.00 84 1010.6
20260906074505 83 0 0.0 0.0 0.00 0.00 0.00 84 1010.6
20260906074402 83 0 0.0 0.0 0.00 0.00 0.00 84 1010.6
20260906074303 83 0 0.0 0.0 0.00 0.00 0.00 84 1010.7
20260906074201 83 0 0.0 0.0 0.00 0.00 0.00 84 1010.6
20260906074103 83 0 0.0 5.0 0.00 0.00 0.00 84 1010.6
20260906074004 83 0 3.0 5.0 0.00 0.00 0.00 84 1010.6
20260906073904 83 0 3.0 5.0 0.00 0.00 0.00 84 1010.7
20260906073803 83 0 3.0 5.0 0.00 0.00 0.00 84 1010.6
20260906073703 83 0 3.0 5.0 0.00 0.00 0.00 84 1010.7
20260906073604 83 0 3.0 5.0 0.00 0.00 0.00 84 1010.7
20260906073503 83 0 3.0 5.0 0.00 0.00 0.00 84 1010.6
20260906073403 83 0 3.0 5.0 0.00 0.00 0.00 84 1010.7
20260906073304 83 0 3.0 5.0 0.00 0.00 0.00 84 1010.8
20260906073203 83 0 3.0 5.0 0.00 0.00 0.00 84 1010.8
20260906073102 83 0 2.0 4.0 0.00 0.00 0.00 84 1010.7
20260906073005 83 0 2.0 4.0 0.00 0.00 0.00 84 1010.8
20260906072903 83 0 2.0 4.0 0.00 0.00 0.00 84 1010.8
20260906072803 83 0 2.0 4.0 0.00 0.00 0.00 84 1010.7
20260906072702 83 0 1.0 4.0 0.00 0.00 0.00 84 1010.8
20260906072604 83 0 0.0 4.0 0.00 0.00 0.00 84 1010.8
20260906072502 83 0 1.0 4.0 0.00 0.00 0.00 84 1010.8
20260906072404 83 0 2.0 4.0 0.00 0.00 0.00 84 1010.8
20260906072305 83 0 3.0 4.0 0.00 0.00 0.00 84 1010.8
20260906072203 83 0 0.0 3.0 0.00 0.00 0.00 84 1010.8
20260906072104 83 0 0.0 3.0 0.00 0.00 0.00 84 1010.8
20260906072004 83 0 0.0 3.0 0.00 0.00 0.00 84 1010.8
20260906071904 83 0 0.0 3.0 0.00 0.00 0.00 84 1010.8
20260906071802 83 0 0.0 3.0 0.00 0.00 0.00 84 1010.8
20260906071702 83 0 0.0 3.0 0.00 0.00 0.00 84 1010.8
20260906071602 83 0 1.0 3.0 0.00 0.00 0.00 84 1010.8
20260906071504 83 0 2.0 3.0 0.00 0.00 0.00 84 1010.8
20260906071403 83 0 1.0 3.0 0.00 0.00 0.00 84 1010.8
20260906071303 83 0 0.0 1.0 0.00 0.00 0.00 84 1010.8
20260906071202 83 0 0.0 1.0 0.00 0.00 0.00 84 1010.8
20260906071104 83 0 0.0 1.0 0.00 0.00 0.00 84 1010.8
20260906071004 83 0 0.0 2.0 0.00 0.00 0.00 84 1010.8
20260906070904 83 0 0.0 2.0 0.00 0.00 0.00 84 1010.9
20260906070803 83 0 0.0 3.0 0.00 0.00 0.00 84 1010.9
20260906070703 83 0 0.0 3.0 0.00 0.00 0.00 84 1010.8
20260906070603 83 0 0.0 3.0 0.00 0.00 0.00 84 1010.8
20260906070504 83 0 1.0 3.0 0.00 0.00 0.00 84 1010.8
20260906070404 83 0 1.0 3.0 0.00 0.00 0.00 84 1010.8
20260906070303 83 0 1.0 3.0 0.00 0.00 0.00 84 1010.8
20260906070204 83 0 1.0 3.0 0.00 0.00 0.00 84 1010.7
20260906070004 83 0 2.0 6.0 0.00 0.00 0.00 84 1010.8
20260906065903 83 0 2.0 6.0 0.00 0.00 0.00 84 1010.7
20260906065802 83 0 3.0 6.0 0.00 0.00 0.00 84 1010.8
20260906065702 83 0 2.0 6.0 0.00 0.00 0.00 84 1010.8
20260906065603 83 0 3.0 6.0 0.00 0.00 0.00 84 1010.8
20260906065505 83 0 3.0 6.0 0.00 0.00 0.00 84 1010.8
20260906065403 83 0 3.0 6.0 0.00 0.00 0.00 84 1010.8
20260906065305 83 0 3.0 6.0 0.00 0.00 0.00 84 1010.8
20260906065203 83 0 4.0 6.0 0.00 0.00 0.00 84 1010.9
20260906065103 83 0 2.0 6.0 0.00 0.00 0.00 84 1010.8
20260906065003 83 0 0.0 3.0 0.00 0.00 0.00 84 1010.9
20260906064858 83 0 0.0 3.0 0.00 0.00 0.00 84 1010.8
20260906064754 83 0 0.0 3.0 0.00 0.00 0.00 84 1010.8
20260906064649 83 0 0.0 3.0 0.00 0.00 0.00 84 1010.8
20260906064549 83 0 0.0 5.0 0.00 0.00 0.00 84 1010.9
20260906064446 83 0 2.0 5.0 0.00 0.00 0.00 84 1010.9
20260906064347 83 0 2.0 5.0 0.00 0.00 0.00 84 1010.9
20260906064245 83 0 1.0 5.0 0.00 0.00 0.00 84 1010.9
20260906064143 83 0 1.0 5.0 0.00 0.00 0.00 84 1010.9
20260906064044 83 0 1.0 5.0 0.00 0.00 0.00 84 1010.9
20260906063944 83 0 2.0 5.0 0.00 0.00 0.00 84 1011.0
20260906063844 83 0 2.0 5.0 0.00 0.00 0.00 84 1010.9
20260906063745 83 0 3.0 5.0 0.00 0.00 0.00 84 1010.9
20260906063644 83 0 3.0 5.0 0.00 0.00 0.00 84 1010.9
20260906063544 83 0 2.0 4.0 0.00 0.00 0.00 84 1010.9
20260906063444 83 0 2.0 4.0 0.00 0.00 0.00 84 1010.9
20260906063344 83 0 2.0 4.0 0.00 0.00 0.00 84 1010.8
20260906063243 83 0 2.0 4.0 0.00 0.00 0.00 84 1010.9
20260906063144 83 0 3.0 4.0 0.00 0.00 0.00 84 1010.9
20260906063043 83 0 3.0 4.0 0.00 0.00 0.00 84 1010.9
20260906062944 83 0 2.0 3.0 0.00 0.00 0.00 84 1010.8
20260906062846 83 0 2.0 3.0 0.00 0.00 0.00 84 1010.9
20260906062745 83 0 2.0 3.0 0.00 0.00 0.00 84 1010.9
20260906062644 83 0 1.0 2.0 0.00 0.00 0.00 84 1010.9
20260906062545 83 0 0.0 2.0 0.00 0.00 0.00 84 1010.9
20260906062446 83 0 1.0 2.0 0.00 0.00 0.00 84 1010.9
20260906062344 83 0 2.0 2.0 0.00 0.00 0.00 84 1011.0
20260906062245 83 0 1.0 2.0 0.00 0.00 0.00 84 1010.9
20260906062144 83 0 1.0 2.0 0.00 0.00 0.00 84 1011.0
20260906062043 83 0 1.0 2.0 0.00 0.00 0.00 84 1011.0
20260906061943 83 0 0.0 2.0 0.00 0.00 0.00 84 1011.0
20260906061846 83 0 1.0 2.0 0.00 0.00 0.00 84 1011.0
20260906061744 83 0 1.0 2.0 0.00 0.00 0.00 84 1011.0
20260906061646 83 0 1.0 2.0 0.00 0.00 0.00 84 1010.9
20260906061544 83 0 1.0 3.0 0.00 0.00 0.00 84 1010.9
20260906061444 83 0 1.0 4.0 0.00 0.00 0.00 84 1010.9
20260906061344 83 0 1.0 4.0 0.00 0.00 0.00 84 1010.9
20260906061244 83 0 0.0 4.0 0.00 0.00 0.00 84 1010.9
20260906061145 83 0 0.0 4.0 0.00 0.00 0.00 84 1010.9
20260906061044 83 0 0.0 4.0 0.00 0.00 0.00 84 1010.8
20260906060944 83 0 0.0 4.0 0.00 0.00 0.00 84 1010.9
20260906060843 83 0 0.0 4.0 0.00 0.00 0.00 84 1010.9
20260906060744 83 0 1.0 4.0 0.00 0.00 0.00 84 1010.9
20260906060644 83 0 2.0 4.0 0.00 0.00 0.00 84 1010.9
20260906060545 83 0 2.0 4.0 0.00 0.00 0.00 84 1010.9
20260906060444 83 0 0.0 3.0 0.00 0.00 0.00 84 1010.9
20260906060344 83 0 0.0 3.0 0.00 0.00 0.00 84 1010.9
20260906060245 83 0 0.0 3.0 0.00 0.00 0.00 84 1010.9
20260906060143 83 0 0.0 3.0 0.00 0.00 0.00 84 1010.8
20260906060044 83 0 0.0 3.0 0.00 0.00 0.00 84 1010.9
20260906055942 83 0 0.0 3.0 0.00 0.00 0.00 84 1010.9
20260906055843 83 0 0.0 3.0 0.00 0.00 0.00 84 1010.9
20260906055744 83 0 3.0 3.0 0.00 0.00 0.00 84 1010.9
20260906055643 83 0 3.0 3.0 0.00 0.00 0.00 84 1010.9
20260906055543 83 0 3.0 3.0 0.00 0.00 0.00 84 1011.0
20260906055444 83 0 2.0 4.0 0.00 0.00 0.00 84 1011.0
20260906055343 83 0 2.0 4.0 0.00 0.00 0.00 84 1011.0
20260906055244 83 0 2.0 4.0 0.00 0.00 0.00 84 1011.0
20260906055143 83 0 2.0 4.0 0.00 0.00 0.00 84 1011.0
20260906055044 83 0 1.0 4.0 0.00 0.00 0.00 84 1011.0
20260906054944 83 0 2.0 4.0 0.00 0.00 0.00 84 1011.0
20260906054842 83 0 1.0 4.0 0.00 0.00 0.00 84 1011.0
20260906054744 83 0 1.0 4.0 0.00 0.00 0.00 84 1011.0
20260906054644 83 0 2.0 4.0 0.00 0.00 0.00 84 1011.0
20260906054543 83 0 3.0 4.0 0.00 0.00 0.00 84 1011.0
20260906054443 83 0 2.0 4.0 0.00 0.00 0.00 84 1011.0
20260906054344 83 0 2.0 4.0 0.00 0.00 0.00 84 1010.9
20260906054243 83 0 2.0 4.0 0.00 0.00 0.00 84 1010.9
20260906054143 83 0 2.0 4.0 0.00 0.00 0.00 84 1010.9
20260906054042 83 0 2.0 4.0 0.00 0.00 0.00 84 1010.9
20260906053943 83 0 3.0 4.0 0.00 0.00 0.00 84 1010.9
20260906053842 83 0 3.0 4.0 0.00 0.00 0.00 84 1010.9
20260906053743 83 0 2.0 4.0 0.00 0.00 0.00 84 1011.0
20260906053643 83 0 2.0 5.0 0.00 0.00 0.00 84 1011.0
20260906053543 83 0 2.0 5.0 0.00 0.00 0.00 84 1010.9
20260906053442 83 0 0.0 5.0 0.00 0.00 0.00 85 1011.0
20260906053343 83 0 2.0 5.0 0.00 0.00 0.00 85 1010.9
20260906053243 83 0 2.0 5.0 0.00 0.00 0.00 85 1011.0
20260906053142 83 0 2.0 5.0 0.00 0.00 0.00 85 1010.9
20260906053043 83 0 2.0 5.0 0.00 0.00 0.00 85 1010.9
20260906052943 83 0 2.0 5.0 0.00 0.00 0.00 85 1010.9
20260906052842 83 0 2.0 5.0 0.00 0.00 0.00 85 1011.0
20260906052744 83 0 2.0 5.0 0.00 0.00 0.00 85 1010.9
20260906052642 83 0 3.0 5.0 0.00 0.00 0.00 85 1011.0
20260906052543 83 0 4.0 5.0 0.00 0.00 0.00 85 1011.0
20260906052442 83 0 2.0 5.0 0.00 0.00 0.00 85 1011.0
20260906052343 83 0 2.0 5.0 0.00 0.00 0.00 85 1011.0
20260906052243 83 0 3.0 6.0 0.00 0.00 0.00 85 1011.0
20260906052142 83 0 3.0 7.0 0.00 0.00 0.00 85 1011.0
20260906052044 83 0 3.0 7.0 0.00 0.00 0.00 84 1011.0
20260906051944 83 0 2.0 7.0 0.00 0.00 0.00 85 1011.0
20260906051841 83 0 2.0 7.0 0.00 0.00 0.00 84 1011.0
20260906051743 83 0 3.0 7.0 0.00 0.00 0.00 85 1011.0
20260906051642 83 0 3.0 7.0 0.00 0.00 0.00 85 1011.0
20260906051543 83 0 2.0 7.0 0.00 0.00 0.00 85 1011.0
20260906051441 83 0 3.0 7.0 0.00 0.00 0.00 84 1011.1
20260906051340 83 0 4.0 7.0 0.00 0.00 0.00 84 1011.1
20260906051242 83 0 4.0 7.0 0.00 0.00 0.00 84 1011.1
20260906051141 83 0 2.0 5.0 0.00 0.00 0.00 84 1011.1
20260906051043 83 0 1.0 4.0 0.00 0.00 0.00 84 1011.1
20260906050942 83 0 1.0 4.0 0.00 0.00 0.00 84 1011.1
20260906050842 83 0 2.0 4.0 0.00 0.00 0.00 84 1011.1
20260906050741 83 0 2.0 4.0 0.00 0.00 0.00 84 1011.1
20260906050641 83 0 3.0 5.0 0.00 0.00 0.00 84 1011.0
20260906050542 83 0 3.0 5.0 0.00 0.00 0.00 84 1011.0
20260906050442 83 0 3.0 5.0 0.00 0.00 0.00 84 1011.0
20260906050341 83 0 3.0 5.0 0.00 0.00 0.00 84 1011.0
20260906050243 83 0 3.0 5.0 0.00 0.00 0.00 84 1011.0
20260906050142 83 0 3.0 5.0 0.00 0.00 0.00 84 1010.9
20260906050042 83 0 3.0 5.0 0.00 0.00 0.00 84 1010.9
20260906045942 83 0 3.0 5.0 0.00 0.00 0.00 84 1010.9
20260906045841 83 0 3.0 5.0 0.00 0.00 0.00 84 1010.9
20260906045742 84 0 4.0 5.0 0.00 0.00 0.00 84 1010.9
20260906045643 84 0 3.0 5.0 0.00 0.00 0.00 84 1010.9
20260906045543 84 0 3.0 5.0 0.00 0.00 0.00 84 1011.0
20260906045442 84 0 3.0 5.0 0.00 0.00 0.00 84 1011.0
20260906045343 84 0 3.0 5.0 0.00 0.00 0.00 84 1010.9
20260906045243 84 0 3.0 5.0 0.00 0.00 0.00 84 1010.9
20260906045142 84 0 3.0 5.0 0.00 0.00 0.00 84 1011.0
20260906045041 84 0 3.0 5.0 0.00 0.00 0.00 84 1011.0
20260906044942 84 0 3.0 5.0 0.00 0.00 0.00 84 1011.1
20260906044842 84 0 3.0 5.0 0.00 0.00 0.00 84 1011.1
20260906044742 84 0 2.0 5.0 0.00 0.00 0.00 84 1011.1
20260906044642 84 0 2.0 5.0 0.00 0.00 0.00 84 1011.1
20260906044541 84 0 3.0 5.0 0.00 0.00 0.00 84 1011.1
20260906044442 84 0 3.0 5.0 0.00 0.00 0.00 84 1011.2
20260906044341 84 0 2.0 4.0 0.00 0.00 0.00 84 1011.1
20260906044242 84 0 2.0 4.0 0.00 0.00 0.00 84 1011.2
20260906044143 84 0 1.0 4.0 0.00 0.00 0.00 84 1011.2
20260906044042 84 0 2.0 4.0 0.00 0.00 0.00 84 1011.2
20260906043942 84 0 2.0 4.0 0.00 0.00 0.00 84 1011.2
20260906043842 84 0 2.0 4.0 0.00 0.00 0.00 84 1011.2
20260906043742 84 0 2.0 4.0 0.00 0.00 0.00 84 1011.2
20260906043643 84 0 2.0 4.0 0.00 0.00 0.00 84 1011.2
20260906043541 84 0 2.0 4.0 0.00 0.00 0.00 84 1011.1
20260906043443 84 0 3.0 4.0 0.00 0.00 0.00 84 1011.1
20260906043342 84 0 3.0 4.0 0.00 0.00 0.00 84 1011.1
20260906043240 84 0 3.0 4.0 0.00 0.00 0.00 84 1011.1
20260906043140 84 0 3.0 4.0 0.00 0.00 0.00 84 1011.0
20260906043040 84 0 3.0 4.0 0.00 0.00 0.00 84 1011.1
20260906042940 84 0 3.0 4.0 0.00 0.00 0.00 84 1011.1
20260906042839 84 0 3.0 4.0 0.00 0.00 0.00 84 1011.1
20260906042740 84 0 3.0 4.0 0.00 0.00 0.00 84 1011.1
20260906042639 84 0 2.0 4.0 0.00 0.00 0.00 84 1011.1
20260906042540 84 0 2.0 5.0 0.00 0.00 0.00 84 1011.1
20260906042440 84 0 2.0 5.0 0.00 0.00 0.00 84 1011.0
20260906042339 84 0 2.0 5.0 0.00 0.00 0.00 84 1011.1
20260906042239 84 0 2.0 5.0 0.00 0.00 0.00 84 1011.0
20260906042139 84 0 2.0 5.0 0.00 0.00 0.00 84 1011.0
20260906042040 84 0 1.0 5.0 0.00 0.00 0.00 84 1011.0
20260906041940 84 0 1.0 5.0 0.00 0.00 0.00 84 1011.1
20260906041839 84 0 1.0 5.0 0.00 0.00 0.00 84 1011.1
20260906041739 84 0 2.0 5.0 0.00 0.00 0.00 84 1011.1
20260906041640 84 0 2.0 5.0 0.00 0.00 0.00 84 1011.1
20260906041540 84 0 2.0 5.0 0.00 0.00 0.00 84 1011.1
20260906041438 84 0 2.0 5.0 0.00 0.00 0.00 84 1011.1
20260906041338 84 0 1.0 5.0 0.00 0.00 0.00 84 1011.1
20260906041238 84 0 1.0 5.0 0.00 0.00 0.00 84 1011.2
20260906041139 84 0 1.0 5.0 0.00 0.00 0.00 84 1011.1
20260906041039 84 0 2.0 5.0 0.00 0.00 0.00 84 1011.1
20260906040941 84 0 3.0 5.0 0.00 0.00 0.00 84 1011.1
20260906040838 84 0 3.0 5.0 0.00 0.00 0.00 84 1011.1
20260906040739 84 0 2.0 4.0 0.00 0.00 0.00 84 1011.1
20260906040639 84 0 2.0 4.0 0.00 0.00 0.00 84 1011.2
20260906040539 84 0 2.0 5.0 0.00 0.00 0.00 84 1011.2
20260906040438 84 0 3.0 5.0 0.00 0.00 0.00 84 1011.1
20260906040340 84 0 2.0 5.0 0.00 0.00 0.00 84 1011.1
20260906040240 84 0 2.0 5.0 0.00 0.00 0.00 84 1011.1
20260906040139 84 0 0.0 5.0 0.00 0.00 0.00 83 1011.2
20260906040038 84 0 0.0 5.0 0.00 0.00 0.00 83 1011.2
20260906035939 84 0 1.0 5.0 0.00 0.00 0.00 83 1011.2
20260906035839 84 0 2.0 5.0 0.00 0.00 0.00 83 1011.2
20260906035739 84 0 3.0 5.0 0.00 0.00 0.00 83 1011.3
20260906035639 84 0 3.0 5.0 0.00 0.00 0.00 83 1011.3
20260906035539 84 0 3.0 5.0 0.00 0.00 0.00 83 1011.2
20260906035439 84 0 3.0 5.0 0.00 0.00 0.00 84 1011.2
20260906035340 84 0 3.0 5.0 0.00 0.00 0.00 83 1011.2
20260906035238 84 0 3.0 5.0 0.00 0.00 0.00 83 1011.2
20260906035140 84 0 3.0 5.0 0.00 0.00 0.00 83 1011.2
20260906035038 84 0 2.0 5.0 0.00 0.00 0.00 83 1011.2
20260906034938 84 0 2.0 5.0 0.00 0.00 0.00 83 1011.2
20260906034838 84 0 3.0 5.0 0.00 0.00 0.00 83 1011.2
20260906034740 84 0 2.0 5.0 0.00 0.00 0.00 83 1011.2
20260906034637 84 0 2.0 5.0 0.00 0.00 0.00 83 1011.1
20260906034539 84 0 2.0 5.0 0.00 0.00 0.00 83 1011.1
20260906034439 84 0 2.0 5.0 0.00 0.00 0.00 83 1011.2
20260906034339 84 0 2.0 5.0 0.00 0.00 0.00 83 1011.2
20260906034239 84 0 3.0 5.0 0.00 0.00 0.00 83 1011.2
20260906034140 84 0 2.0 5.0 0.00 0.00 0.00 83 1011.2
20260906034039 84 0 1.0 5.0 0.00 0.00 0.00 83 1011.3
20260906033939 84 0 1.0 5.0 0.00 0.00 0.00 83 1011.2
20260906033839 84 0 2.0 5.0 0.00 0.00 0.00 83 1011.2
20260906033739 84 0 2.0 5.0 0.00 0.00 0.00 83 1011.3
20260906033638 84 0 1.0 5.0 0.00 0.00 0.00 83 1011.2
20260906033538 84 0 1.0 5.0 0.00 0.00 0.00 83 1011.2
20260906033437 84 0 2.0 5.0 0.00 0.00 0.00 83 1011.2
20260906033339 84 0 2.0 5.0 0.00 0.00 0.00 83 1011.2
20260906033238 84 0 2.0 5.0 0.00 0.00 0.00 83 1011.2
20260906033137 84 0 2.0 4.0 0.00 0.00 0.00 83 1011.2
20260906033040 84 0 2.0 5.0 0.00 0.00 0.00 83 1011.2
20260906032940 84 0 2.0 5.0 0.00 0.00 0.00 83 1011.1
20260906032839 84 0 2.0 5.0 0.00 0.00 0.00 83 1011.2
20260906032737 84 0 1.0 5.0 0.00 0.00 0.00 83 1011.1
20260906032640 84 0 2.0 5.0 0.00 0.00 0.00 83 1011.2
20260906032539 84 0 2.0 5.0 0.00 0.00 0.00 83 1011.1
20260906032437 84 0 2.0 5.0 0.00 0.00 0.00 83 1011.1
20260906032340 84 0 1.0 5.0 0.00 0.00 0.00 83 1011.2
20260906032237 84 0 2.0 5.0 0.00 0.00 0.00 83 1011.1
20260906032140 84 0 2.0 5.0 0.00 0.00 0.00 83 1011.1
20260906032040 84 0 2.0 5.0 0.00 0.00 0.00 83 1011.2
20260906031937 84 0 3.0 5.0 0.00 0.00 0.00 83 1011.2
20260906031837 84 0 4.0 5.0 0.00 0.00 0.00 83 1011.2
20260906031740 84 0 4.0 5.0 0.00 0.00 0.00 83 1011.2
20260906031640 84 0 4.0 5.0 0.00 0.00 0.00 83 1011.2
20260906031539 84 0 3.0 5.0 0.00 0.00 0.00 83 1011.2
20260906031438 84 0 3.0 5.0 0.00 0.00 0.00 83 1011.2
20260906031339 84 0 3.0 5.0 0.00 0.00 0.00 83 1011.2
20260906031237 84 0 3.0 5.0 0.00 0.00 0.00 83 1011.1
20260906031139 84 0 2.0 5.0 0.00 0.00 0.00 83 1011.1
20260906031037 84 0 3.0 5.0 0.00 0.00 0.00 83 1011.1
20260906030939 84 0 2.0 5.0 0.00 0.00 0.00 83 1011.1
20260906030838 84 0 3.0 5.0 0.00 0.00 0.00 83 1011.1
20260906030738 84 0 4.0 6.0 0.00 0.00 0.00 83 1011.0
20260906030639 84 0 4.0 6.0 0.00 0.00 0.00 83 1011.1
20260906030538 84 0 4.0 6.0 0.00 0.00 0.00 83 1011.0
20260906030438 84 0 4.0 6.0 0.00 0.00 0.00 83 1011.0
20260906030338 84 0 4.0 6.0 0.00 0.00 0.00 84 1011.0
20260906030238 84 0 4.0 6.0 0.00 0.00 0.00 84 1011.0
20260906030139 84 0 4.0 6.0 0.00 0.00 0.00 84 1011.0
20260906030038 84 0 4.0 6.0 0.00 0.00 0.00 84 1011.0
20260906025937 84 0 4.0 6.0 0.00 0.00 0.00 84 1011.1
20260906025838 84 0 4.0 6.0 0.00 0.00 0.00 84 1011.0
20260906025737 84 0 2.0 6.0 0.00 0.00 0.00 84 1011.0
20260906025637 84 0 2.0 6.0 0.00 0.00 0.00 84 1011.0
20260906025538 84 0 3.0 6.0 0.00 0.00 0.00 84 1011.0
20260906025437 84 0 3.0 5.0 0.00 0.00 0.00 84 1010.9
20260906025338 84 0 2.0 4.0 0.00 0.00 0.00 84 1010.9
20260906025238 84 0 2.0 4.0 0.00 0.00 0.00 85 1010.9
20260906025138 83 0 2.0 4.0 0.00 0.00 0.00 85 1011.0
20260906025038 83 0 3.0 4.0 0.00 0.00 0.00 85 1010.9
20260906024937 83 0 1.0 4.0 0.00 0.00 0.00 85 1010.8
20260906024833 83 0 1.0 3.0 0.00 0.00 0.00 85 1010.8
20260906024731 83 0 1.0 2.0 0.00 0.00 0.00 85 1010.8
20260906024630 83 0 1.0 2.0 0.00 0.00 0.00 86 1010.8
20260906024533 83 0 0.0 3.0 0.00 0.00 0.00 86 1010.7
20260906024432 83 0 0.0 3.0 0.00 0.00 0.00 86 1010.7
20260906024332 83 0 0.0 3.0 0.00 0.00 0.00 86 1010.7
20260906024232 83 0 0.0 4.0 0.00 0.00 0.00 86 1010.7
20260906024133 83 0 0.0 4.0 0.00 0.00 0.00 86 1010.7
20260906024033 83 0 0.0 4.0 0.00 0.00 0.00 85 1010.7
20260906023934 83 0 0.0 4.0 0.00 0.00 0.00 85 1010.6
20260906023831 83 0 1.0 4.0 0.00 0.00 0.00 85 1010.6
20260906023731 83 0 1.0 4.0 0.00 0.00 0.00 85 1010.7
20260906023632 83 0 1.0 4.0 0.00 0.00 0.00 85 1010.6
20260906023533 83 0 2.0 4.0 0.00 0.00 0.00 85 1010.6
20260906023432 83 0 2.0 4.0 0.00 0.00 0.00 85 1010.6
20260906023333 83 0 2.0 4.0 0.00 0.00 0.00 85 1010.7
20260906023232 83 0 2.0 4.0 0.00 0.00 0.00 85 1010.6
20260906023132 83 0 2.0 4.0 0.00 0.00 0.00 85 1010.6
20260906023031 83 0 2.0 6.0 0.00 0.00 0.00 85 1010.5
20260906022932 83 0 2.0 6.0 0.00 0.00 0.00 85 1010.5
20260906022832 83 0 3.0 6.0 0.00 0.00 0.00 85 1010.5
20260906022732 83 0 3.0 6.0 0.00 0.00 0.00 85 1010.4
20260906022633 83 0 3.0 6.0 0.00 0.00 0.00 85 1010.5
20260906022532 83 0 3.0 6.0 0.00 0.00 0.00 85 1010.5
20260906022433 83 0 3.0 6.0 0.00 0.00 0.00 85 1010.5
20260906022306 83 0 3.0 6.0 0.00 0.00 0.00 85 1010.5
20260906022203 83 0 3.0 6.0 0.00 0.00 0.00 85 1010.5
20260906022103 83 0 3.0 6.0 0.00 0.00 0.00 85 1010.5
20260906022006 83 0 3.0 5.0 0.00 0.00 0.00 85 1010.5
20260906021904 83 0 3.0 5.0 0.00 0.00 0.00 84 1010.5
20260906021803 83 0 2.0 5.0 0.00 0.00 0.00 84 1010.4
20260906021703 83 0 3.0 5.0 0.00 0.00 0.00 84 1010.4
20260906021602 83 0 3.0 5.0 0.00 0.00 0.00 84 1010.3
20260906021506 83 0 4.0 5.0 0.00 0.00 0.00 84 1010.3
20260906021402 84 0 4.0 5.0 0.00 0.00 0.00 84 1010.3
20260906021303 84 0 3.0 4.0 0.00 0.00 0.00 84 1010.3
20260906021204 84 0 3.0 4.0 0.00 0.00 0.00 84 1010.3
20260906021103 84 0 3.0 4.0 0.00 0.00 0.00 84 1010.3
20260906021004 84 0 3.0 4.0 0.00 0.00 0.00 84 1010.2
20260906020903 84 0 3.0 4.0 0.00 0.00 0.00 84 1010.2
20260906020803 84 0 3.0 4.0 0.00 0.00 0.00 84 1010.3
20260906020704 84 0 3.0 4.0 0.00 0.00 0.00 84 1010.2
20260906020603 84 0 2.0 4.0 0.00 0.00 0.00 84 1010.2
20260906020504 84 0 2.0 4.0 0.00 0.00 0.00 84 1010.3
20260906020404 84 0 0.0 4.0 0.00 0.00 0.00 83 1010.3
20260906020304 84 0 0.0 4.0 0.00 0.00 0.00 83 1010.3
20260906020203 84 0 0.0 4.0 0.00 0.00 0.00 83 1010.3
20260906020037 84 0 1.0 4.0 0.00 0.00 0.00 83 1010.3
20260906015935 84 0 2.0 4.0 0.00 0.00 0.00 83 1010.3
20260906015837 84 0 2.0 4.0 0.00 0.00 0.00 83 1010.3
20260906015735 84 0 1.0 3.0 0.00 0.00 0.00 83 1010.3
20260906015635 84 0 0.0 0.0 0.00 0.00 0.00 83 1010.2
20260906015535 84 111 0.0 4.0 0.00 0.00 0.00 83 1010.2
20260906015436 85 110 0.0 6.0 0.00 0.00 0.00 83 1010.2
20260906015336 85 110 0.0 6.0 0.00 0.00 0.00 83 1010.2
20260906015236 85 111 0.0 6.0 0.00 0.00 0.00 82 1010.2
20260906015135 85 128 0.0 6.0 0.00 0.00 0.00 82 1010.2
20260906015035 85 120 0.0 6.0 0.00 0.00 0.00 82 1010.2
20260906014937 85 120 0.0 6.0 0.00 0.00 0.00 81 1010.2
20260906014837 85 109 3.0 6.0 0.00 0.00 0.00 81 1010.2
20260906014732 85 109 3.0 6.0 0.00 0.00 0.00 81 1010.2
20260906014631 85 109 3.0 6.0 0.00 0.00 0.00 81 1010.2
20260906014531 85 109 3.0 6.0 0.00 0.00 0.00 81 1010.2
20260906014431 86 99 1.0 6.0 0.00 0.00 0.00 81 1010.3
20260906014332 86 165 0.0 4.0 0.00 0.00 0.00 81 1010.3
20260906014231 86 165 0.0 4.0 0.00 0.00 0.00 81 1010.3
20260906014132 86 165 0.0 4.0 0.00 0.00 0.00 81 1010.3
20260906014034 86 165 0.0 4.0 0.00 0.00 0.00 80 1010.3
20260906013933 86 165 0.0 4.0 0.00 0.00 0.00 80 1010.2
20260906013832 86 165 1.0 4.0 0.00 0.00 0.00 80 1010.3
20260906013733 86 166 2.0 4.0 0.00 0.00 0.00 80 1010.2
20260906013631 86 166 1.0 4.0 0.00 0.00 0.00 80 1010.1
20260906013532 86 169 2.0 6.0 0.00 0.00 0.00 80 1010.1
20260906013432 86 172 2.0 6.0 0.00 0.00 0.00 80 1010.0
20260906013332 86 188 1.0 6.0 0.00 0.00 0.00 80 1010.1
20260906013231 86 195 0.0 6.0 0.00 0.00 0.00 80 1010.1
20260906013131 86 195 1.0 6.0 0.00 0.00 0.00 80 1010.1
20260906013033 86 197 1.0 6.0 0.00 0.00 0.00 80 1010.1
20260906012932 86 196 1.0 6.0 0.00 0.00 0.00 79 1010.1
20260906012832 86 196 1.0 6.0 0.00 0.00 0.00 79 1010.1
20260906012731 86 197 2.0 6.0 0.00 0.00 0.00 79 1010.0
20260906012632 86 197 4.0 6.0 0.00 0.00 0.00 79 1010.0
20260906012532 86 178 3.0 9.0 0.00 0.00 0.00 79 1010.0
20260906012432 86 151 3.0 9.0 0.00 0.00 0.00 79 1009.9
20260906012332 86 149 4.0 9.0 0.00 0.00 0.00 79 1010.0
20260906012231 86 166 3.0 9.0 0.00 0.00 0.00 79 1010.0
20260906012133 86 183 2.0 9.0 0.00 0.00 0.00 79 1010.0
20260906012017 86 183 2.0 9.0 0.00 0.00 0.00 79 1009.9
20260906011910 86 183 2.0 9.0 0.00 0.00 0.00 79 1010.0
20260906011809 86 190 3.0 9.0 0.00 0.00 0.00 79 1009.9
20260906011710 86 190 4.0 9.0 0.00 0.00 0.00 79 1010.0
20260906011603 86 195 2.0 5.0 0.00 0.00 0.00 79 1010.0
20260906011503 86 188 2.0 5.0 0.00 0.00 0.00 79 1010.0
20260906011402 86 190 3.0 5.0 0.00 0.00 0.00 79 1010.0
20260906011302 86 186 3.0 5.0 0.00 0.00 0.00 79 1009.9
20260906011202 86 0 3.0 5.0 0.00 0.00 0.00 79 1009.9
20260906011103 86 0 3.0 5.0 0.00 0.00 0.00 79 1009.9
20260906011005 86 0 2.0 5.0 0.00 0.00 0.00 79 1009.9
20260906010904 86 0 2.0 5.0 0.00 0.00 0.00 79 1009.9
20260906010804 86 0 2.0 5.0 0.00 0.00 0.00 78 1009.9
20260906010703 86 0 2.0 5.0 0.00 0.00 0.00 78 1009.9
20260906010602 86 0 2.0 3.0 0.00 0.00 0.00 78 1009.9
20260906010504 0 0.0 0.0 0.00 0.00 0.00 1009.9
20260906010403 0 0.0 0.0 0.00 0.00 0.00 1009.9
20260906010304 0 0.0 0.0 0.00 0.00 0.00 1009.9
20260906010204 0 0.0 0.0 0.00 0.00 0.00 1010.0
20260906010104 0 0.0 0.0 0.00 0.00 0.00 1009.9
20260906010004 0 0.0 0.0 0.00 0.00 0.00 1009.9
20260906005903 0 0.0 0.0 0.00 0.00 0.00 1009.9
20260906005804 0 0.0 0.0 0.00 0.00 0.00 1009.9
20260906005703 0 0.0 0.0 0.00 0.00 0.00 1009.9
20260906005603 0 0.0 0.0 0.00 0.00 0.00 1010.0
20260906005504 0 0.0 0.0 0.00 0.00 0.00 1010.0
20260906005403 0 0.0 0.0 0.00 0.00 0.00 1009.9
20260906005306 0 0.0 0.0 0.00 0.00 0.00 1010.0
20260906005203 87 0 2.0 3.0 0.00 0.00 0.00 76 1010.0
20260906005104 87 0 2.0 3.0 0.00 0.00 0.00 76 1010.0
20260906005003 87 0 2.0 4.0 0.00 0.00 0.00 76 1010.0
20260906004904 87 0 2.0 4.0 0.00 0.00 0.00 76 1009.9
20260906004803 87 0 2.0 4.0 0.00 0.00 0.00 76 1010.0
20260906004703 87 0 2.0 4.0 0.00 0.00 0.00 76 1010.0
20260906004603 87 0 2.0 4.0 0.00 0.00 0.00 76 1010.0
20260906004504 87 0 2.0 4.0 0.00 0.00 0.00 76 1010.0
20260906004403 87 0 2.0 4.0 0.00 0.00 0.00 76 1010.0
20260906004303 87 0 2.0 4.0 0.00 0.00 0.00 76 1010.0
20260906004138 87 0 2.0 4.0 0.00 0.00 0.00 76 1010.0
20260906004037 87 0 2.0 4.0 0.00 0.00 0.00 76 1009.9
20260906003934 87 0 2.0 4.0 0.00 0.00 0.00 76 1010.0
20260906003834 87 0 2.0 4.0 0.00 0.00 0.00 75 1009.9
20260906003732 87 0 2.0 4.0 0.00 0.00 0.00 75 1009.9
20260906003632 87 168 1.0 4.0 0.00 0.00 0.00 75 1009.9
20260906003534 87 169 1.0 4.0 0.00 0.00 0.00 75 1009.9
20260906003431 87 169 0.0 4.0 0.00 0.00 0.00 75 1009.9
20260906003331 87 169 1.0 4.0 0.00 0.00 0.00 75 1009.9
20260906003232 88 171 1.0 4.0 0.00 0.00 0.00 74 1009.9
20260906003132 88 171 1.0 4.0 0.00 0.00 0.00 74 1009.9
20260906003032 88 171 1.0 4.0 0.00 0.00 0.00 74 1009.9
20260906002931 88 171 1.0 4.0 0.00 0.00 0.00 74 1009.9
20260906002832 88 171 0.0 4.0 0.00 0.00 0.00 74 1009.8
20260906002732 88 169 1.0 4.0 0.00 0.00 0.00 74 1009.8
20260906002632 88 171 1.0 4.0 0.00 0.00 0.00 74 1009.9
20260906002532 88 169 1.0 3.0 0.00 0.00 0.00 73 1009.8
20260906002431 88 169 1.0 3.0 0.00 0.00 0.00 73 1009.9
20260906002332 88 158 0.0 2.0 0.00 0.00 0.00 73 1009.9
20260906002232 88 159 0.0 3.0 0.00 0.00 0.00 72 1010.0
20260906002133 88 162 1.0 3.0 0.00 0.00 0.00 72 1009.9
20260906002033 88 162 1.0 3.0 0.00 0.00 0.00 72 1009.9
20260906001932 88 162 1.0 3.0 0.00 0.00 0.00 72 1010.0
20260906001832 88 162 1.0 3.0 0.00 0.00 0.00 72 1010.0
20260906001732 88 142 1.0 3.0 0.00 0.00 0.00 71 1010.0
20260906001632 88 144 1.0 4.0 0.00 0.00 0.00 71 1010.0
20260906001532 88 145 1.0 4.0 0.00 0.00 0.00 71 1010.0
20260906001432 88 142 1.0 4.0 0.00 0.00 0.00 71 1010.0
20260906001332 88 142 1.0 4.0 0.00 0.00 0.00 71 1010.0
20260906001233 89 142 2.0 4.0 0.00 0.00 0.00 70 1010.0
20260906001132 89 148 2.0 4.0 0.00 0.00 0.00 70 1009.9
20260906001032 89 162 3.0 4.0 0.00 0.00 0.00 70 1010.0
20260906000933 89 162 3.0 4.0 0.00 0.00 0.00 70 1010.1
20260906000832 89 162 3.0 4.0 0.00 0.00 0.00 70 1010.1
20260906000731 89 161 3.0 4.0 0.00 0.00 0.00 70 1010.1
20260906000632 89 197 1.0 3.0 0.00 0.00 0.00 69 1010.1
20260906000531 89 197 1.0 3.0 0.00 0.00 0.00 69 1010.1
20260906000433 89 199 1.0 3.0 0.00 0.00 0.00 69 1010.1
20260906000333 89 199 1.0 3.0 0.00 0.00 0.00 69 1010.1
20260906000226 89 200 1.0 3.0 0.00 0.00 0.00 69 1010.1
20260906000129 89 200 1.0 3.0 0.00 0.00 0.00 69 1010.1
20260906000026 89 200 1.0 4.0 0.00 0.00 0.00 69 1010.1
20260905235927 89 197 2.0 4.0 0.00 0.00 0.00 69 1010.1
20260905235826 89 199 2.0 4.0 0.00 0.00 0.00 68 1010.2
20260905235726 89 204 1.0 4.0 0.00 0.00 0.00 68 1010.2
20260905235627 89 204 1.0 4.0 0.00 0.00 0.00 68 1010.2
20260905235526 89 204 1.0 4.0 0.00 0.00 0.00 68 1010.2
20260905235425 89 202 2.0 4.0 0.00 0.00 0.00 68 1010.3
20260905235325 89 202 2.0 4.0 0.00 0.00 0.00 69 1010.3
20260905235227 89 202 2.0 4.0 0.00 0.00 0.00 69 1010.2
20260905235125 89 203 1.0 4.0 0.00 0.00 0.00 69 1010.3
20260905235027 89 207 0.0 2.0 0.00 0.00 0.00 69 1010.2
20260905234925 89 206 0.0 3.0 0.00 0.00 0.00 69 1010.4
20260905234828 89 204 0.0 3.0 0.00 0.00 0.00 69 1010.3
20260905234727 89 206 0.0 3.0 0.00 0.00 0.00 69 1010.4
20260905234626 89 204 0.0 3.0 0.00 0.00 0.00 69 1010.4
20260905234525 89 204 0.0 3.0 0.00 0.00 0.00 69 1010.4
20260905234426 89 204 1.0 3.0 0.00 0.00 0.00 69 1010.4
20260905234327 89 206 1.0 3.0 0.00 0.00 0.00 69 1010.4
20260905234225 89 206 1.0 3.0 0.00 0.00 0.00 69 1010.5
20260905234126 89 224 1.0 3.0 0.00 0.00 0.00 69 1010.4
20260905234027 89 226 1.0 3.0 0.00 0.00 0.00 70 1010.4
20260905233926 89 227 1.0 3.0 0.00 0.00 0.00 70 1010.4
20260905233826 89 228 1.0 3.0 0.00 0.00 0.00 70 1010.4
20260905233728 89 230 1.0 3.0 0.00 0.00 0.00 70 1010.5
20260905233627 89 231 1.0 3.0 0.00 0.00 0.00 70 1010.5
20260905233526 89 231 1.0 3.0 0.00 0.00 0.00 70 1010.5
20260905233426 89 231 1.0 3.0 0.00 0.00 0.00 70 1010.5
20260905233326 89 231 1.0 3.0 0.00 0.00 0.00 70 1010.5
20260905233226 89 231 1.0 3.0 0.00 0.00 0.00 70 1010.5
20260905233125 89 245 1.0 3.0 0.00 0.00 0.00 70 1010.4
20260905233025 89 244 0.0 0.0 0.00 0.00 0.00 70 1010.5
20260905232926 89 245 0.0 0.0 0.00 0.00 0.00 70 1010.4
20260905232827 89 245 0.0 0.0 0.00 0.00 0.00 70 1010.4
20260905232726 89 245 0.0 0.0 0.00 0.00 0.00 70 1010.4
20260905232626 89 247 0.0 0.0 0.00 0.00 0.00 70 1010.4
20260905232524 89 245 0.0 0.0 0.00 0.00 0.00 70 1010.4
20260905232426 89 247 0.0 0.0 0.00 0.00 0.00 70 1010.4
20260905232324 89 245 0.0 0.0 0.00 0.00 0.00 70 1010.4
20260905232225 89 245 0.0 0.0 0.00 0.00 0.00 69 1010.3
20260905232124 89 247 0.0 0.0 0.00 0.00 0.00 69 1010.4
20260905232024 89 251 0.0 0.0 0.00 0.00 0.00 69 1010.3
20260905231925 89 250 0.0 0.0 0.00 0.00 0.00 70 1010.2
20260905231825 89 0 0.0 0.0 0.00 0.00 0.00 70 1010.3
20260905231725 89 250 0.0 0.0 0.00 0.00 0.00 70 1010.3
20260905231625 89 250 0.0 1.0 0.00 0.00 0.00 70 1010.3
20260905231524 89 251 0.0 3.0 0.00 0.00 0.00 70 1010.3
20260905231426 89 250 0.0 4.0 0.00 0.00 0.00 70 1010.3
20260905231326 89 251 0.0 4.0 0.00 0.00 0.00 70 1010.2
20260905231226 89 250 0.0 4.0 0.00 0.00 0.00 70 1010.3
20260905231126 89 251 0.0 4.0 0.00 0.00 0.00 70 1010.2
20260905231024 89 252 0.0 4.0 0.00 0.00 0.00 70 1010.2
20260905230925 89 251 0.0 4.0 0.00 0.00 0.00 71 1010.2
20260905230824 89 251 0.0 4.0 0.00 0.00 0.00 71 1010.2
20260905230726 89 252 1.0 4.0 0.00 0.00 0.00 71 1010.1
20260905230625 89 251 3.0 4.0 0.00 0.00 0.00 71 1010.2
20260905230525 89 252 3.0 4.0 0.00 0.00 0.00 71 1010.2
20260905230424 89 251 2.0 4.0 0.00 0.00 0.00 71 1010.2
20260905230326 89 251 2.0 3.0 0.00 0.00 0.00 72 1010.2
20260905230225 89 251 1.0 3.0 0.00 0.00 0.00 71 1010.2
20260905230124 89 289 0.0 2.0 0.00 0.00 0.00 72 1010.2
20260905230025 89 289 0.0 2.0 0.00 0.00 0.00 73 1010.1
20260905225924 89 290 0.0 2.0 0.00 0.00 0.00 73 1010.1
20260905225826 89 290 0.0 2.0 0.00 0.00 0.00 73 1010.1
20260905225724 89 289 0.0 2.0 0.00 0.00 0.00 73 1010.0
20260905225625 89 0 1.0 2.0 0.00 0.00 0.00 73 1010.1
20260905225524 89 0 1.0 2.0 0.00 0.00 0.00 73 1010.0
20260905225425 89 292 1.0 2.0 0.00 0.00 0.00 73 1010.0
20260905225326 89 292 1.0 2.0 0.00 0.00 0.00 73 1009.9
20260905225225 89 292 1.0 2.0 0.00 0.00 0.00 73 1009.9
20260905225125 89 293 1.0 2.0 0.00 0.00 0.00 73 1010.0
20260905225025 89 290 1.0 2.0 0.00 0.00 0.00 73 1009.9
20260905224925 89 292 1.0 2.0 0.00 0.00 0.00 73 1010.0
20260905224825 88 285 1.0 2.0 0.00 0.00 0.00 74 1010.0
20260905224725 88 285 1.0 2.0 0.00 0.00 0.00 74 1009.9
20260905224624 88 285 1.0 2.0 0.00 0.00 0.00 74 1010.0
20260905224523 88 285 1.0 2.0 0.00 0.00 0.00 74 1009.9
20260905224423 88 285 1.0 2.0 0.00 0.00 0.00 74 1009.9
20260905224323 88 285 1.0 2.0 0.00 0.00 0.00 74 1009.9
20260905224223 88 285 1.0 2.0 0.00 0.00 0.00 74 1010.0
20260905224123 88 285 1.0 3.0 0.00 0.00 0.00 74 1009.9
20260905224023 88 285 1.0 3.0 0.00 0.00 0.00 74 1009.9
20260905223922 88 285 1.0 3.0 0.00 0.00 0.00 74 1010.0
20260905223822 88 285 1.0 3.0 0.00 0.00 0.00 74 1010.0
20260905223721 88 285 1.0 3.0 0.00 0.00 0.00 74 1010.0
20260905223622 88 285 1.0 3.0 0.00 0.00 0.00 74 1010.0
20260905223522 88 285 1.0 3.0 0.00 0.00 0.00 73 1010.1
20260905223421 88 283 1.0 5.0 0.00 0.00 0.00 73 1010.1
20260905223324 88 283 2.0 5.0 0.00 0.00 0.00 73 1010.1
20260905223223 88 283 2.0 5.0 0.00 0.00 0.00 73 1010.0
20260905223121 88 283 1.0 5.0 0.00 0.00 0.00 73 1010.0
20260905223023 89 283 1.0 5.0 0.00 0.00 0.00 72 1010.0
20260905222922 89 283 1.0 5.0 0.00 0.00 0.00 72 1010.0
20260905222823 89 283 1.0 6.0 0.00 0.00 0.00 72 1009.9
20260905222722 89 283 2.0 6.0 0.00 0.00 0.00 72 1009.9
20260905222622 89 283 3.0 6.0 0.00 0.00 0.00 72 1010.0
20260905222523 89 283 3.0 6.0 0.00 0.00 0.00 72 1009.9
20260905222421 89 269 4.0 6.0 0.00 0.00 0.00 72 1009.9
20260905222321 89 248 4.0 6.0 0.00 0.00 0.00 71 1009.9
20260905222223 89 275 4.0 6.0 0.00 0.00 0.00 71 1009.9
20260905222122 89 279 4.0 6.0 0.00 0.00 0.00 71 1010.0
20260905222022 90 279 4.0 6.0 0.00 0.00 0.00 71 1009.9
20260905221924 90 286 4.0 6.0 0.00 0.00 0.00 71 1009.9
20260905221823 90 292 3.0 4.0 0.00 0.00 0.00 70 1009.9
20260905221723 0 0.0 0.0 0.00 0.00 0.00 1009.9
20260905221622 90 240 3.0 5.0 0.00 0.00 0.00 70 1010.0
20260905221522 90 240 3.0 5.0 0.00 0.00 0.00 70 1010.0
20260905221422 90 240 3.0 5.0 0.00 0.00 0.00 70 1009.9
20260905221321 90 240 3.0 5.0 0.00 0.00 0.00 70 1009.9
20260905221221 90 240 3.0 5.0 0.00 0.00 0.00 70 1009.9
20260905221120 90 240 3.0 5.0 0.00 0.00 0.00 70 1009.9
20260905221021 90 240 3.0 5.0 0.00 0.00 0.00 70 1010.0
20260905220920 90 240 3.0 5.0 0.00 0.00 0.00 70 1009.9
20260905220820 90 240 3.0 5.0 0.00 0.00 0.00 70 1010.0
20260905220719 90 240 4.0 7.0 0.00 0.00 0.00 70 1009.9
20260905220621 90 243 3.0 7.0 0.00 0.00 0.00 70 1009.9
20260905220520 90 241 2.0 7.0 0.00 0.00 0.00 70 1009.9
20260905220420 90 243 3.0 7.0 0.00 0.00 0.00 70 1009.8
20260905220320 90 243 3.0 7.0 0.00 0.00 0.00 70 1009.9
20260905220221 90 243 3.0 7.0 0.00 0.00 0.00 70 1009.9
20260905220119 90 243 3.0 7.0 0.00 0.00 0.00 70 1009.9
20260905220020 90 241 3.0 7.0 0.00 0.00 0.00 70 1009.9
20260905215920 90 243 4.0 7.0 0.00 0.00 0.00 70 1009.9
20260905215819 90 241 4.0 7.0 0.00 0.00 0.00 70 1010.0
20260905215720 90 192 4.0 6.0 0.00 0.00 0.00 69 1009.9
20260905215620 90 230 3.0 6.0 0.00 0.00 0.00 69 1009.9
20260905215519 90 237 3.0 6.0 0.00 0.00 0.00 69 1009.9
20260905215420 91 237 2.0 6.0 0.00 0.00 0.00 68 1009.9
20260905215321 91 247 5.0 6.0 0.00 0.00 0.00 67 1009.9
20260905215219 91 234 5.0 6.0 0.00 0.00 0.00 67 1009.9
20260905215119 91 261 5.0 6.0 0.00 0.00 0.00 67 1009.9
20260905215020 92 282 4.0 5.0 0.00 0.00 0.00 65 1009.9
20260905214918 92 212 3.0 5.0 0.00 0.00 0.00 65 1009.8
20260905214819 92 206 2.0 5.0 0.00 0.00 0.00 65 1009.9
20260905214719 92 183 1.0 5.0 0.00 0.00 0.00 65 1009.9
20260905214620 91 183 1.0 5.0 0.00 0.00 0.00 65 1009.8
20260905214520 91 183 1.0 5.0 0.00 0.00 0.00 65 1009.9
20260905214419 91 183 0.0 5.0 0.00 0.00 0.00 65 1009.8
20260905214320 92 186 2.0 5.0 0.00 0.00 0.00 65 1009.8
20260905214220 92 186 2.0 5.0 0.00 0.00 0.00 65 1009.8
20260905214120 92 186 2.0 5.0 0.00 0.00 0.00 65 1009.8
20260905214019 92 186 2.0 5.0 0.00 0.00 0.00 65 1009.9
20260905213919 92 186 2.0 5.0 0.00 0.00 0.00 65 1009.8
20260905213818 92 186 2.0 5.0 0.00 0.00 0.00 65 1009.9
20260905213719 92 162 1.0 5.0 0.00 0.00 0.00 64 1010.0
20260905213620 92 162 2.0 5.0 0.00 0.00 0.00 65 1009.9
20260905213519 92 162 3.0 5.0 0.00 0.00 0.00 66 1009.9
20260905213418 92 196 2.0 5.0 0.00 0.00 0.00 66 1009.9
20260905213319 92 185 1.0 3.0 0.00 0.00 0.00 65 1009.9
20260905213219 92 185 1.0 3.0 0.00 0.00 0.00 66 1009.9
20260905213120 92 185 1.0 3.0 0.00 0.00 0.00 66 1009.9
20260905213020 92 185 1.0 3.0 0.00 0.00 0.00 66 1009.9
20260905212919 92 185 2.0 3.0 0.00 0.00 0.00 66 1010.0
20260905212818 92 185 2.0 3.0 0.00 0.00 0.00 66 1010.0
20260905212719 92 186 2.0 2.0 0.00 0.00 0.00 66 1010.0
20260905212619 92 186 2.0 2.0 0.00 0.00 0.00 65 1010.0
20260905212519 0 0.0 0.0 0.00 0.00 0.00 1010.0
20260905212419 0 0.0 0.0 0.00 0.00 0.00 1010.1
20260905212306 0 0.0 0.0 0.00 0.00 0.00 1010.1
20260905212204 0 0.0 0.0 0.00 0.00 0.00 1010.1
20260905212103 92 142 1.0 2.0 0.00 0.00 0.00 65 1010.1
20260905212004 92 142 1.0 3.0 0.00 0.00 0.00 65 1010.2
20260905211903 92 142 1.0 3.0 0.00 0.00 0.00 65 1010.2
20260905211804 92 142 1.0 3.0 0.00 0.00 0.00 65 1010.1
20260905211703 92 142 1.0 3.0 0.00 0.00 0.00 65 1010.2
20260905211603 92 142 1.0 4.0 0.00 0.00 0.00 65 1010.1
20260905211503 92 142 1.0 4.0 0.00 0.00 0.00 65 1010.3
20260905211403 92 142 1.0 4.0 0.00 0.00 0.00 65 1010.2
20260905211303 92 142 1.0 4.0 0.00 0.00 0.00 65 1010.3
20260905211203 92 142 1.0 4.0 0.00 0.00 0.00 65 1010.3
20260905211038 92 135 0.0 4.0 0.00 0.00 0.00 65 1010.3
20260905210938 92 135 1.0 4.0 0.00 0.00 0.00 66 1010.4
20260905210838 92 135 2.0 4.0 0.00 0.00 0.00 65 1010.3
20260905210735 92 135 2.0 4.0 0.00 0.00 0.00 65 1010.4
20260905210632 92 124 2.0 4.0 0.00 0.00 0.00 66 1010.3
20260905210533 92 124 2.0 4.0 0.00 0.00 0.00 65 1010.3
20260905210431 92 125 2.0 3.0 0.00 0.00 0.00 65 1010.3
20260905210332 92 140 1.0 6.0 0.00 0.00 0.00 65 1010.4
20260905210232 92 140 1.0 6.0 0.00 0.00 0.00 65 1010.3
20260905210132 92 140 1.0 6.0 0.00 0.00 0.00 65 1010.3
20260905210017 92 140 1.0 6.0 0.00 0.00 0.00 65 1010.2
20260905205916 92 140 1.0 6.0 0.00 0.00 0.00 65 1010.2
20260905205815 92 140 2.0 6.0 0.00 0.00 0.00 66 1010.2
20260905205717 93 148 4.0 6.0 0.00 0.00 0.00 66 1010.1
20260905205615 93 148 4.0 6.0 0.00 0.00 0.00 66 1010.1
20260905205516 93 148 4.0 6.0 0.00 0.00 0.00 66 1010.2
20260905205416 93 148 4.0 6.0 0.00 0.00 0.00 66 1010.1
20260905205316 92 206 3.0 6.0 0.00 0.00 0.00 66 1010.1
20260905205216 92 190 2.0 6.0 0.00 0.00 0.00 65 1010.1
20260905205115 92 180 2.0 6.0 0.00 0.00 0.00 65 1010.1
20260905205017 92 180 4.0 6.0 0.00 0.00 0.00 65 1010.1
20260905204914 92 165 4.0 6.0 0.00 0.00 0.00 65 1010.1
20260905204814 93 165 4.0 6.0 0.00 0.00 0.00 65 1010.1
20260905204714 93 109 4.0 6.0 0.00 0.00 0.00 65 1010.1
20260905204614 93 103 3.0 5.0 0.00 0.00 0.00 64 1010.1
20260905204515 93 169 1.0 4.0 0.00 0.00 0.00 64 1010.1
20260905204414 93 168 1.0 4.0 0.00 0.00 0.00 63 1010.1
20260905204316 93 168 1.0 4.0 0.00 0.00 0.00 63 1010.1
20260905204216 93 168 1.0 4.0 0.00 0.00 0.00 63 1010.1
20260905204115 93 168 0.0 4.0 0.00 0.00 0.00 64 1010.1
20260905204017 93 168 0.0 4.0 0.00 0.00 0.00 64 1010.2
20260905203917 93 169 0.0 4.0 0.00 0.00 0.00 65 1010.2
20260905203816 93 169 0.0 7.0 0.00 0.00 0.00 64 1010.3
20260905203714 93 169 2.0 7.0 0.00 0.00 0.00 63 1010.3
20260905203614 93 169 2.0 7.0 0.00 0.00 0.00 64 1010.3
20260905203515 93 109 0.0 7.0 0.00 0.00 0.00 65 1010.2
20260905203414 92 109 1.0 7.0 0.00 0.00 0.00 66 1010.3
20260905203316 92 109 2.0 7.0 0.00 0.00 0.00 65 1010.3
20260905203214 92 109 1.0 7.0 0.00 0.00 0.00 66 1010.3
20260905203116 92 109 1.0 7.0 0.00 0.00 0.00 65 1010.3
20260905203015 92 107 4.0 7.0 0.00 0.00 0.00 64 1010.3
20260905202914 93 103 5.0 7.0 0.00 0.00 0.00 64 1010.3
20260905202815 92 111 4.0 4.0 0.00 0.00 0.00 64 1010.3
20260905202714 92 120 4.0 4.0 0.00 0.00 0.00 64 1010.3
20260905202614 92 141 2.0 4.0 0.00 0.00 0.00 64 1010.3
20260905202515 92 141 2.0 4.0 0.00 0.00 0.00 64 1010.4
20260905202415 92 141 2.0 5.0 0.00 0.00 0.00 64 1010.4
20260905202313 92 141 2.0 5.0 0.00 0.00 0.00 64 1010.4
20260905202212 92 141 2.0 5.0 0.00 0.00 0.00 64 1010.5
20260905202115 93 141 2.0 5.0 0.00 0.00 0.00 64 1010.5
20260905202013 92 141 2.0 5.0 0.00 0.00 0.00 67 1010.4
20260905201915 92 109 1.0 5.0 0.00 0.00 0.00 66 1010.4
20260905201814 92 109 1.0 5.0 0.00 0.00 0.00 66 1010.4
20260905201715 92 109 2.0 5.0 0.00 0.00 0.00 65 1010.5
20260905201613 92 104 2.0 5.0 0.00 0.00 0.00 65 1010.5
20260905201516 92 104 2.0 5.0 0.00 0.00 0.00 65 1010.5
20260905201416 92 171 2.0 5.0 0.00 0.00 0.00 66 1010.5
20260905201313 92 172 2.0 5.0 0.00 0.00 0.00 65 1010.4
20260905201215 92 172 2.0 5.0 0.00 0.00 0.00 65 1010.5
20260905201113 92 171 3.0 5.0 0.00 0.00 0.00 66 1010.5
20260905201016 92 172 3.0 5.0 0.00 0.00 0.00 66 1010.4
20260905200914 91 172 2.0 5.0 0.00 0.00 0.00 66 1010.5
20260905200814 91 100 3.0 5.0 0.00 0.00 0.00 65 1010.5
20260905200713 91 100 3.0 5.0 0.00 0.00 0.00 66 1010.5
20260905200614 92 97 2.0 5.0 0.00 0.00 0.00 66 1010.6
20260905200513 91 161 2.0 6.0 0.00 0.00 0.00 66 1010.6
20260905200413 92 175 2.0 6.0 0.00 0.00 0.00 66 1010.5
20260905200316 91 173 2.0 6.0 0.00 0.00 0.00 67 1010.6
20260905200214 91 149 1.0 6.0 0.00 0.00 0.00 67 1010.6
20260905200114 91 149 1.0 6.0 0.00 0.00 0.00 67 1010.7
20260905200015 91 149 1.0 6.0 0.00 0.00 0.00 67 1010.7
20260905195907 91 149 2.0 6.0 0.00 0.00 0.00 66 1010.8
20260905195807 91 151 2.0 6.0 0.00 0.00 0.00 67 1010.8
20260905195705 91 114 3.0 6.0 0.00 0.00 0.00 67 1010.8
20260905195603 91 114 3.0 6.0 0.00 0.00 0.00 67 1010.9
20260905195502 91 188 2.0 6.0 0.00 0.00 0.00 68 1010.9
20260905195403 90 140 2.0 6.0 0.00 0.00 0.00 69 1010.9
20260905195306 90 140 3.0 6.0 0.00 0.00 0.00 69 1010.8
20260905195202 90 141 4.0 6.0 0.00 0.00 0.00 68 1010.9
20260905195103 90 179 5.0 9.0 0.00 0.00 0.00 68 1010.9
20260905195004 91 111 3.0 10.0 0.00 0.00 0.00 68 1010.9
20260905194904 91 111 3.0 10.0 0.00 0.00 0.00 68 1010.9
20260905194804 91 111 3.0 10.0 0.00 0.00 0.00 68 1010.9
20260905194703 91 111 3.0 10.0 0.00 0.00 0.00 68 1011.0
20260905194602 91 109 3.0 10.0 0.00 0.00 0.00 68 1010.9
20260905194504 91 197 4.0 10.0 0.00 0.00 0.00 68 1010.9
20260905194403 91 197 4.0 10.0 0.00 0.00 0.00 68 1011.0
20260905194304 91 197 4.0 10.0 0.00 0.00 0.00 68 1010.9
20260905194204 91 210 5.0 10.0 0.00 0.00 0.00 68 1011.0
20260905194104 91 217 4.0 9.0 0.00 0.00 0.00 68 1010.9
20260905194003 91 210 5.0 9.0 0.00 0.00 0.00 69 1010.9
20260905193902 91 202 4.0 9.0 0.00 0.00 0.00 68 1010.9
20260905193802 91 180 2.0 9.0 0.00 0.00 0.00 69 1010.9
20260905193702 91 169 2.0 10.0 0.00 0.00 0.00 68 1010.9
20260905193604 91 175 4.0 10.0 0.00 0.00 0.00 67 1010.9
20260905193503 91 175 4.0 10.0 0.00 0.00 0.00 67 1010.8
20260905193405 91 183 5.0 10.0 0.00 0.00 0.00 67 1010.9
20260905193302 91 213 5.0 10.0 0.00 0.00 0.00 67 1010.9
20260905193202 91 204 4.0 10.0 0.00 0.00 0.00 67 1010.9
20260905193102 91 175 4.0 10.0 0.00 0.00 0.00 67 1011.0
20260905193002 91 188 4.0 10.0 0.00 0.00 0.00 67 1010.9
20260905192903 91 186 6.0 10.0 0.00 0.00 0.00 68 1011.0
20260905192802 91 189 7.0 10.0 0.00 0.00 0.00 67 1011.1
20260905192704 91 210 6.0 10.0 0.00 0.00 0.00 67 1011.0
20260905192605 91 131 3.0 7.0 0.00 0.00 0.00 68 1011.1
20260905192504 91 131 3.0 7.0 0.00 0.00 0.00 68 1011.1
20260905192404 91 131 3.0 7.0 0.00 0.00 0.00 68 1011.1
20260905192306 91 131 3.0 7.0 0.00 0.00 0.00 68 1011.1
20260905192204 91 131 3.0 7.0 0.00 0.00 0.00 68 1011.2
20260905192103 91 102 3.0 7.0 0.00 0.00 0.00 69 1011.2
20260905192004 91 135 2.0 7.0 0.00 0.00 0.00 70 1011.1
20260905191901 91 142 3.0 7.0 0.00 0.00 0.00 69 1011.1
20260905191802 91 92 4.0 7.0 0.00 0.00 0.00 70 1011.1
20260905191703 89 140 6.0 9.0 0.00 0.00 0.00 70 1011.2
20260905191603 89 140 6.0 9.0 0.00 0.00 0.00 70 1011.2
20260905191504 89 140 6.0 9.0 0.00 0.00 0.00 70 1011.3
20260905191404 89 140 6.0 9.0 0.00 0.00 0.00 70 1011.3
20260905191303 90 190 5.0 9.0 0.00 0.00 0.00 71 1011.3
20260905191204 90 147 4.0 9.0 0.00 0.00 0.00 71 1011.3
20260905191103 90 147 4.0 9.0 0.00 0.00 0.00 71 1011.4
20260905191004 90 147 4.0 9.0 0.00 0.00 0.00 71 1011.3
20260905190903 90 147 4.0 9.0 0.00 0.00 0.00 71 1011.4
20260905190742 89 189 2.0 9.0 0.00 0.00 0.00 73 1011.4
20260905190640 89 103 2.0 9.0 0.00 0.00 0.00 74 1011.4
20260905190539 89 93 4.0 9.0 0.00 0.00 0.00 72 1011.4
20260905190438 89 114 4.0 9.0 0.00 0.00 0.00 72 1011.4
20260905190337 89 175 5.0 9.0 0.00 0.00 0.00 72 1011.6
20260905190235 89 169 6.0 13.0 0.00 0.00 0.00 72 1011.5
20260905190131 89 197 5.0 13.0 0.00 0.00 0.00 72 1011.5
20260905190033 89 172 5.0 13.0 0.00 0.00 0.00 72 1011.4
20260905185931 89 133 3.0 13.0 0.00 0.00 0.00 72 1011.5
20260905185813 89 133 3.0 13.0 0.00 0.00 0.00 72 1011.4
20260905185704 89 133 3.0 13.0 0.00 0.00 0.00 72 1011.4
20260905185602 89 135 3.0 13.0 0.00 0.00 0.00 72 1011.4
20260905185504 89 159 3.0 13.0 0.00 0.00 0.00 72 1011.4
20260905185403 89 179 6.0 13.0 0.00 0.00 0.00 70 1011.4
20260905185305 90 166 7.0 13.0 0.00 0.00 0.00 70 1011.3
20260905185204 90 188 4.0 11.0 0.00 0.00 0.00 70 1011.4
20260905185103 90 162 3.0 9.0 0.00 0.00 0.00 70 1011.4
20260905185005 90 110 4.0 9.0 0.00 0.00 0.00 69 1011.4
20260905184904 91 200 4.0 9.0 0.00 0.00 0.00 72 1011.5
20260905184803 91 200 4.0 9.0 0.00 0.00 0.00 72 1011.5
20260905184703 91 200 4.0 9.0 0.00 0.00 0.00 72 1011.5
20260905184603 91 200 4.0 9.0 0.00 0.00 0.00 72 1011.5
20260905184502 91 102 3.0 9.0 0.00 0.00 0.00 72 1011.5
20260905184402 91 162 2.0 9.0 0.00 0.00 0.00 70 1011.5
20260905184302 90 166 3.0 9.0 0.00 0.00 0.00 71 1011.5
20260905184202 90 133 4.0 9.0 0.00 0.00 0.00 70 1011.5
20260905184103 90 133 5.0 9.0 0.00 0.00 0.00 71 1011.5
20260905184004 90 99 5.0 9.0 0.00 0.00 0.00 70 1011.5
20260905183903 90 100 4.0 9.0 0.00 0.00 0.00 71 1011.5
20260905183803 90 157 2.0 10.0 0.00 0.00 0.00 70 1011.5
20260905183704 90 157 2.0 10.0 0.00 0.00 0.00 70 1011.6
20260905183603 90 158 3.0 10.0 0.00 0.00 0.00 70 1011.6
20260905183504 90 133 4.0 10.0 0.00 0.00 0.00 70 1011.7
20260905183403 90 161 4.0 10.0 0.00 0.00 0.00 70 1011.7
20260905183302 90 159 4.0 10.0 0.00 0.00 0.00 70 1011.7
20260905183202 90 175 4.0 10.0 0.00 0.00 0.00 69 1011.7
20260905183102 90 173 4.0 10.0 0.00 0.00 0.00 69 1011.8
20260905183003 90 183 5.0 10.0 0.00 0.00 0.00 68 1011.7
20260905182902 91 189 4.0 10.0 0.00 0.00 0.00 67 1011.8
20260905182803 90 90 3.0 4.0 0.00 0.00 0.00 66 1011.7
20260905182704 90 90 3.0 4.0 0.00 0.00 0.00 66 1011.7
20260905182603 90 90 3.0 4.0 0.00 0.00 0.00 66 1011.7
20260905182454 90 90 2.0 4.0 0.00 0.00 0.00 65 1011.7
20260905182354 91 90 2.0 4.0 0.00 0.00 0.00 68 1011.7
20260905182251 90 89 3.0 4.0 0.00 0.00 0.00 66 1011.7
20260905182151 90 89 2.0 4.0 0.00 0.00 0.00 67 1011.7
20260905182040 90 89 1.0 3.0 0.00 0.00 0.00 67 1011.7
20260905181938 90 89 2.0 3.0 0.00 0.00 0.00 67 1011.7
20260905181835 90 89 2.0 3.0 0.00 0.00 0.00 67 1011.7
20260905181735 89 89 2.0 3.0 0.00 0.00 0.00 69 1011.8
20260905181631 89 89 2.0 3.0 0.00 0.00 0.00 69 1011.8
20260905181531 89 89 2.0 4.0 0.00 0.00 0.00 69 1011.9
20260905181431 89 89 2.0 5.0 0.00 0.00 0.00 69 1011.9
20260905181333 89 89 1.0 5.0 0.00 0.00 0.00 69 1011.9
20260905181232 89 89 1.0 6.0 0.00 0.00 0.00 70 1012.0
20260905181131 89 89 1.0 6.0 0.00 0.00 0.00 69 1011.9
20260905181031 89 89 2.0 6.0 0.00 0.00 0.00 69 1012.0
20260905180932 89 89 2.0 6.0 0.00 0.00 0.00 69 1012.0
20260905180831 89 89 2.0 6.0 0.00 0.00 0.00 69 1012.1
20260905180733 89 89 3.0 6.0 0.00 0.00 0.00 69 1012.1
20260905180633 89 89 4.0 6.0 0.00 0.00 0.00 68 1012.2
20260905180531 89 89 3.0 6.0 0.00 0.00 0.00 68 1012.2
20260905180427 89 89 3.0 6.0 0.00 0.00 0.00 67 1012.1
20260905180326 89 89 5.0 6.0 0.00 0.00 0.00 67 1012.1
20260905180215 89 89 4.0 6.0 0.00 0.00 0.00 67 1012.1
20260905180115 89 87 4.0 6.0 0.00 0.00 0.00 68 1012.1
20260905180012 89 85 3.0 5.0 0.00 0.00 0.00 69 1012.1
20260905175910 89 86 3.0 5.0 0.00 0.00 0.00 69 1012.1
20260905175810 89 87 3.0 5.0 0.00 0.00 0.00 69 1012.2
20260905175711 89 86 3.0 5.0 0.00 0.00 0.00 69 1012.1
20260905175611 89 87 3.0 5.0 0.00 0.00 0.00 68 1012.2
20260905175512 89 87 3.0 5.0 0.00 0.00 0.00 68 1012.2
20260905175410 89 87 4.0 5.0 0.00 0.00 0.00 68 1012.3
20260905175311 89 87 3.0 5.0 0.00 0.00 0.00 69 1012.2
20260905175211 89 87 3.0 5.0 0.00 0.00 0.00 69 1012.3
20260905175111 89 87 4.0 5.0 0.00 0.00 0.00 69 1012.3
20260905175010 89 87 3.0 5.0 0.00 0.00 0.00 69 1012.2
20260905174912 89 87 2.0 5.0 0.00 0.00 0.00 69 1012.2
20260905174811 89 87 2.0 5.0 0.00 0.00 0.00 69 1012.2
20260905174710 89 87 2.0 5.0 0.00 0.00 0.00 69 1012.2
20260905174610 89 87 2.0 5.0 0.00 0.00 0.00 69 1012.3
20260905174511 89 87 3.0 6.0 0.00 0.00 0.00 69 1012.3
20260905174410 90 87 4.0 6.0 0.00 0.00 0.00 69 1012.3
20260905174310 90 87 3.0 6.0 0.00 0.00 0.00 70 1012.4
20260905174210 90 87 2.0 6.0 0.00 0.00 0.00 69 1012.4
20260905174112 89 87 3.0 6.0 0.00 0.00 0.00 69 1012.4
20260905174011 89 86 3.0 6.0 0.00 0.00 0.00 70 1012.5
20260905173909 89 86 4.0 6.0 0.00 0.00 0.00 70 1012.5
20260905173811 89 86 4.0 6.0 0.00 0.00 0.00 70 1012.5
20260905173711 89 86 4.0 6.0 0.00 0.00 0.00 69 1012.5
20260905173610 89 86 4.0 6.0 0.00 0.00 0.00 69 1012.5
20260905173510 89 72 4.0 6.0 0.00 0.00 0.00 69 1012.5
20260905173409 90 71 3.0 6.0 0.00 0.00 0.00 69 1012.5
20260905173309 90 68 2.0 6.0 0.00 0.00 0.00 68 1012.6
20260905173210 90 68 1.0 6.0 0.00 0.00 0.00 67 1012.6
20260905173109 90 68 2.0 6.0 0.00 0.00 0.00 66 1012.5
20260905173010 90 68 4.0 6.0 0.00 0.00 0.00 66 1012.5
20260905172911 90 68 3.0 6.0 0.00 0.00 0.00 66 1012.6
20260905172809 90 310 1.0 3.0 0.00 0.00 0.00 68 1012.6
20260905172711 90 309 1.0 3.0 0.00 0.00 0.00 68 1012.6
20260905172609 90 309 1.0 3.0 0.00 0.00 0.00 68 1012.7
20260905172510 90 309 1.0 3.0 0.00 0.00 0.00 68 1012.6
20260905172409 89 309 0.0 3.0 0.00 0.00 0.00 68 1012.6
20260905172309 90 309 0.0 3.0 0.00 0.00 0.00 68 1012.7
20260905172210 89 309 1.0 3.0 0.00 0.00 0.00 68 1012.6
20260905172109 90 309 1.0 3.0 0.00 0.00 0.00 67 1012.7
20260905172009 90 309 1.0 3.0 0.00 0.00 0.00 68 1012.6
20260905171911 89 309 1.0 3.0 0.00 0.00 0.00 68 1012.7
20260905171810 89 309 2.0 3.0 0.00 0.00 0.00 67 1012.7
20260905171711 89 309 2.0 3.0 0.00 0.00 0.00 67 1012.7
20260905171611 90 309 2.0 3.0 0.00 0.00 0.00 68 1012.7
20260905171509 89 309 2.0 3.0 0.00 0.00 0.00 68 1012.7
20260905171411 89 310 2.0 3.0 0.00 0.00 0.00 68 1012.7
20260905171309 89 310 2.0 3.0 0.00 0.00 0.00 68 1012.7
20260905171210 89 310 2.0 3.0 0.00 0.00 0.00 69 1012.6
20260905171104 89 310 2.0 3.0 0.00 0.00 0.00 69 1012.6
20260905171002 89 310 1.0 3.0 0.00 0.00 0.00 68 1012.6
20260905170902 89 310 1.0 3.0 0.00 0.00 0.00 68 1012.6
20260905170803 89 310 1.0 3.0 0.00 0.00 0.00 68 1012.7
20260905170703 89 310 2.0 3.0 0.00 0.00 0.00 68 1012.6
20260905170602 89 310 2.0 3.0 0.00 0.00 0.00 68 1012.7
20260905170505 89 310 2.0 3.0 0.00 0.00 0.00 69 1012.7
20260905170402 89 310 0.0 3.0 0.00 0.00 0.00 69 1012.7
20260905170304 89 310 1.0 3.0 0.00 0.00 0.00 69 1012.6
20260905170203 89 310 1.0 3.0 0.00 0.00 0.00 69 1012.6
20260905170004 89 310 2.0 3.0 0.00 0.00 0.00 69 1012.7
20260905165853 89 310 1.0 3.0 0.00 0.00 0.00 69 1012.7
20260905165747 89 310 1.0 3.0 0.00 0.00 0.00 69 1012.7
20260905165646 89 310 0.0 5.0 0.00 0.00 0.00 70 1012.6
20260905165533 89 310 1.0 5.0 0.00 0.00 0.00 70 1012.6
20260905165432 89 312 1.0 5.0 0.00 0.00 0.00 69 1012.7
20260905165333 89 312 2.0 5.0 0.00 0.00 0.00 69 1012.7
20260905165231 89 312 2.0 5.0 0.00 0.00 0.00 69 1012.7
20260905165131 90 310 2.0 5.0 0.00 0.00 0.00 69 1012.8
20260905165032 90 312 3.0 5.0 0.00 0.00 0.00 69 1012.7
20260905164909 90 312 3.0 5.0 0.00 0.00 0.00 69 1012.8
20260905164810 90 312 3.0 5.0 0.00 0.00 0.00 69 1012.8
20260905164708 90 312 3.0 5.0 0.00 0.00 0.00 68 1012.7
20260905164610 91 317 4.0 5.0 0.00 0.00 0.00 68 1012.7
20260905164508 91 317 4.0 5.0 0.00 0.00 0.00 68 1012.7
20260905164409 91 240 2.0 3.0 0.00 0.00 0.00 68 1012.7
20260905164310 91 240 2.0 3.0 0.00 0.00 0.00 68 1012.7
20260905164210 91 240 2.0 3.0 0.00 0.00 0.00 68 1012.7
20260905164109 91 240 2.0 3.0 0.00 0.00 0.00 68 1012.7
20260905164009 91 125 2.0 1.0 0.00 0.00 0.00 67 1012.7
20260905163911 91 125 2.0 3.0 0.00 0.00 0.00 67 1012.8
20260905163804 91 125 2.0 3.0 0.00 0.00 0.00 67 1012.8
20260905163703 91 125 2.0 3.0 0.00 0.00 0.00 67 1012.8
20260905163603 91 125 2.0 3.0 0.00 0.00 0.00 67 1012.8
20260905163503 91 125 2.0 3.0 0.00 0.00 0.00 67 1012.8
20260905163403 91 125 2.0 3.0 0.00 0.00 0.00 67 1012.8
20260905163303 91 125 2.0 3.0 0.00 0.00 0.00 67 1012.8
20260905163203 91 125 2.0 4.0 0.00 0.00 0.00 67 1012.8
20260905163103 91 125 2.0 4.0 0.00 0.00 0.00 67 1012.8
20260905163003 91 125 2.0 4.0 0.00 0.00 0.00 67 1012.8
20260905162904 90 125 2.0 4.0 0.00 0.00 0.00 66 1012.8
20260905162803 90 125 2.0 4.0 0.00 0.00 0.00 66 1012.9
20260905162703 90 125 2.0 4.0 0.00 0.00 0.00 66 1012.9
20260905162603 90 125 2.0 4.0 0.00 0.00 0.00 66 1012.9
20260905162502 90 125 2.0 4.0 0.00 0.00 0.00 67 1012.9
20260905162404 90 125 2.0 4.0 0.00 0.00 0.00 67 1012.9
20260905162246 91 125 3.0 4.0 0.00 0.00 0.00 67 1012.9
20260905162144 90 125 3.0 4.0 0.00 0.00 0.00 68 1012.8
20260905162034 91 125 2.0 4.0 0.00 0.00 0.00 67 1012.9
20260905161933 90 125 2.0 2.0 0.00 0.00 0.00 67 1012.9
20260905161832 0 0.0 0.0 0.00 0.00 0.00 1012.8
20260905161732 0 0.0 0.0 0.00 0.00 0.00 1012.8
20260905161632 0 0.0 0.0 0.00 0.00 0.00 1012.8
20260905161533 0 0.0 0.0 0.00 0.00 0.00 1012.8
20260905161433 0 0.0 0.0 0.00 0.00 0.00 1012.8
20260905161333 0 0.0 0.0 0.00 0.00 0.00 1012.8
20260905161234 0 0.0 0.0 0.00 0.00 0.00 1012.8
20260905161133 0 0.0 0.0 0.00 0.00 0.00 1012.8
20260905161032 0 0.0 0.0 0.00 0.00 0.00 1012.8
20260905160904 89 172 2.0 2.0 0.00 0.00 0.00 71 1012.8
20260905160803 89 172 2.0 3.0 0.00 0.00 0.00 71 1012.8
20260905160706 89 172 2.0 3.0 0.00 0.00 0.00 71 1012.7
20260905160601 89 172 2.0 4.0 0.00 0.00 0.00 71 1012.8
20260905160501 89 172 2.0 4.0 0.00 0.00 0.00 71 1012.8
20260905160402 89 172 2.0 4.0 0.00 0.00 0.00 71 1012.8
20260905160301 89 172 2.0 5.0 0.00 0.00 0.00 71 1012.9
20260905160201 89 172 2.0 5.0 0.00 0.00 0.00 71 1012.9
20260905160033 89 172 2.0 5.0 0.00 0.00 0.00 71 1012.9
20260905155933 89 172 2.0 5.0 0.00 0.00 0.00 72 1012.9
20260905155831 89 172 1.0 5.0 0.00 0.00 0.00 73 1012.8
20260905155731 89 172 2.0 5.0 0.00 0.00 0.00 71 1012.9
20260905155633 89 172 3.0 5.0 0.00 0.00 0.00 71 1012.9
20260905155532 89 172 3.0 5.0 0.00 0.00 0.00 71 1012.9
20260905155432 89 172 2.0 5.0 0.00 0.00 0.00 71 1012.9
20260905155332 89 189 0.0 4.0 0.00 0.00 0.00 70 1012.9
20260905155232 0 0.0 0.0 0.00 0.00 0.00 1012.9
20260905155131 0 0.0 0.0 0.00 0.00 0.00 1012.9
20260905155032 0 0.0 0.0 0.00 0.00 0.00 1012.9
20260905154932 0 0.0 0.0 0.00 0.00 0.00 1012.8
20260905154832 0 0.0 0.0 0.00 0.00 0.00 1012.9
20260905154732 87 261 2.0 2.0 0.00 0.00 0.00 75 1012.9
20260905154633 87 261 2.0 2.0 0.00 0.00 0.00 75 1012.9
20260905154532 87 261 2.0 3.0 0.00 0.00 0.00 75 1012.8
20260905154432 87 261 2.0 3.0 0.00 0.00 0.00 75 1012.8
20260905154304 87 261 2.0 3.0 0.00 0.00 0.00 75 1012.9
20260905154204 87 261 2.0 4.0 0.00 0.00 0.00 75 1012.9
20260905154105 87 261 2.0 4.0 0.00 0.00 0.00 75 1012.9
20260905154004 87 261 2.0 4.0 0.00 0.00 0.00 75 1012.9
20260905153904 87 261 2.0 4.0 0.00 0.00 0.00 75 1012.9
20260905153801 87 261 2.0 4.0 0.00 0.00 0.00 75 1012.9
20260905153702 87 261 2.0 4.0 0.00 0.00 0.00 76 1012.9
20260905153603 87 261 2.0 4.0 0.00 0.00 0.00 76 1012.9
20260905153502 87 261 2.0 4.0 0.00 0.00 0.00 76 1012.9
20260905153403 87 261 2.0 4.0 0.00 0.00 0.00 75 1012.9
20260905153304 87 261 2.0 4.0 0.00 0.00 0.00 75 1012.9
20260905153204 87 261 2.0 3.0 0.00 0.00 0.00 76 1012.9
20260905153102 87 259 2.0 2.0 0.00 0.00 0.00 78 1012.9
20260905153004 87 226 0.0 0.0 0.00 0.00 0.00 78 1013.0
20260905152904 87 226 0.0 0.0 0.00 0.00 0.00 78 1012.9
20260905152803 87 226 0.0 0.0 0.00 0.00 0.00 78 1012.9
20260905152703 87 226 0.0 0.0 0.00 0.00 0.00 78 1012.9
20260905152602 87 221 0.0 0.0 0.00 0.00 0.00 78 1012.9
20260905152504 87 221 0.0 0.0 0.00 0.00 0.00 78 1013.0
20260905152403 87 221 0.0 0.0 0.00 0.00 0.00 79 1013.0
20260905152306 86 221 0.0 0.0 0.00 0.00 0.00 79 1013.0
20260905152203 86 220 0.0 0.0 0.00 0.00 0.00 80 1012.9
20260905152103 86 220 0.0 0.0 0.00 0.00 0.00 80 1012.9
20260905152003 86 213 0.0 0.0 0.00 0.00 0.00 80 1013.0
20260905151904 86 219 0.0 0.0 0.00 0.00 0.00 80 1013.0
20260905151803 86 219 0.0 0.0 0.00 0.00 0.00 80 1012.9
20260905151703 86 219 0.0 0.0 0.00 0.00 0.00 81 1012.9
20260905151603 86 219 0.0 0.0 0.00 0.00 0.00 81 1012.9
20260905151503 85 217 0.0 0.0 0.00 0.00 0.00 81 1013.0
20260905151403 85 217 0.0 0.0 0.00 0.00 0.00 81 1012.9
20260905151303 85 217 0.0 0.0 0.00 0.00 0.00 81 1013.0
20260905151204 85 217 0.0 0.0 0.00 0.00 0.00 81 1013.0
20260905151103 85 217 0.0 0.0 0.00 0.00 0.00 81 1013.0
20260905151002 85 217 0.0 0.0 0.00 0.00 0.00 81 1013.1
20260905150904 85 217 0.0 0.0 0.00 0.00 0.00 81 1013.0
20260905150802 85 217 0.0 0.0 0.00 0.00 0.00 81 1013.0
20260905150703 86 217 0.0 0.0 0.00 0.00 0.00 81 1013.0
20260905150604 86 217 0.0 0.0 0.00 0.00 0.00 81 1013.0
20260905150504 86 217 0.0 0.0 0.00 0.00 0.00 81 1013.0
20260905150405 86 217 0.0 0.0 0.00 0.00 0.00 81 1013.0
20260905150302 86 217 0.0 0.0 0.00 0.00 0.00 81 1013.0
20260905150203 86 217 0.0 0.0 0.00 0.00 0.00 82 1013.0
20260905150104 85 217 0.0 0.0 0.00 0.00 0.00 82 1012.9
20260905150004 85 217 0.0 0.0 0.00 0.00 0.00 82 1013.0
20260905145903 85 217 0.0 0.0 0.00 0.00 0.00 82 1012.9
20260905145802 85 217 0.0 0.0 0.00 0.00 0.00 82 1013.0
20260905145702 85 217 0.0 0.0 0.00 0.00 0.00 82 1012.9
20260905145602 85 217 0.0 0.0 0.00 0.00 0.00 82 1012.9
20260905145504 85 217 0.0 0.0 0.00 0.00 0.00 82 1013.0
20260905145405 85 219 0.0 0.0 0.00 0.00 0.00 82 1012.9
20260905145306 85 219 0.0 0.0 0.00 0.00 0.00 82 1013.0
20260905145203 85 220 0.0 0.0 0.00 0.00 0.00 82 1012.9
20260905145102 85 220 0.0 0.0 0.00 0.00 0.00 82 1012.9
20260905145004 85 220 0.0 0.0 0.00 0.00 0.00 82 1013.0
20260905144904 85 220 0.0 0.0 0.00 0.00 0.00 82 1013.0
20260905144803 85 221 0.0 0.0 0.00 0.00 0.00 82 1013.0
20260905144702 85 221 0.0 0.0 0.00 0.00 0.00 82 1012.9
20260905144603 85 220 0.0 0.0 0.00 0.00 0.00 82 1012.9
20260905144504 86 219 0.0 0.0 0.00 0.00 0.00 82 1012.9
20260905144404 86 221 0.0 0.0 0.00 0.00 0.00 82 1012.8
20260905144302 86 220 0.0 0.0 0.00 0.00 0.00 82 1012.9
20260905144202 86 216 0.0 0.0 0.00 0.00 0.00 82 1012.9
20260905144102 86 216 0.0 0.0 0.00 0.00 0.00 82 1012.9
20260905144003 86 216 0.0 0.0 0.00 0.00 0.00 82 1012.9
20260905143903 86 216 0.0 0.0 0.00 0.00 0.00 82 1012.8
20260905143804 86 216 0.0 0.0 0.00 0.00 0.00 82 1012.9
20260905143702 86 216 0.0 0.0 0.00 0.00 0.00 82 1012.9
20260905143602 86 216 0.0 0.0 0.00 0.00 0.00 82 1012.9
20260905143504 86 216 0.0 0.0 0.00 0.00 0.00 83 1012.9
20260905143402 86 224 0.0 0.0 0.00 0.00 0.00 82 1012.9
20260905143303 86 224 0.0 0.0 0.00 0.00 0.00 83 1012.9
20260905143203 86 227 0.0 0.0 0.00 0.00 0.00 84 1012.9
20260905143104 85 221 0.0 0.0 0.00 0.00 0.00 84 1012.9
20260905143003 85 221 0.0 0.0 0.00 0.00 0.00 84 1012.9
20260905142903 85 221 0.0 0.0 0.00 0.00 0.00 84 1012.9
20260905142803 85 221 0.0 0.0 0.00 0.00 0.00 84 1012.9
20260905142703 85 220 0.0 0.0 0.00 0.00 0.00 84 1012.9
20260905142602 85 221 0.0 0.0 0.00 0.00 0.00 84 1012.9
20260905142503 85 214 0.0 0.0 0.00 0.00 0.00 85 1012.9
20260905142404 85 214 0.0 3.0 0.00 0.00 0.00 85 1012.8
20260905142306 85 214 0.0 4.0 0.00 0.00 0.00 85 1012.9
20260905142203 85 214 0.0 4.0 0.00 0.00 0.00 85 1012.8
20260905142103 85 214 0.0 4.0 0.00 0.00 0.00 85 1012.8
20260905142002 85 214 0.0 4.0 0.00 0.00 0.00 85 1012.9
20260905141902 85 212 0.0 4.0 0.00 0.00 0.00 84 1012.9
20260905141803 85 212 2.0 4.0 0.00 0.00 0.00 84 1012.9
20260905141703 85 212 2.0 4.0 0.00 0.00 0.00 84 1012.9
20260905141604 85 212 2.0 4.0 0.00 0.00 0.00 84 1012.9
20260905141504 85 212 2.0 4.0 0.00 0.00 0.00 84 1012.9
20260905141402 85 212 2.0 4.0 0.00 0.00 0.00 85 1012.9
20260905141304 85 212 1.0 3.0 0.00 0.00 0.00 84 1012.8
20260905141203 85 210 1.0 3.0 0.00 0.00 0.00 85 1012.8
20260905141103 85 199 0.0 0.0 0.00 0.00 0.00 85 1012.9
20260905141002 85 199 0.0 0.0 0.00 0.00 0.00 85 1012.8
20260905140902 85 199 0.0 0.0 0.00 0.00 0.00 85 1012.8
20260905140803 85 199 0.0 0.0 0.00 0.00 0.00 85 1012.8
20260905140702 85 199 0.0 0.0 0.00 0.00 0.00 85 1012.8
20260905140602 85 200 0.0 0.0 0.00 0.00 0.00 85 1012.8
20260905140503 84 200 0.0 0.0 0.00 0.00 0.00 85 1012.8
20260905140402 84 200 0.0 0.0 0.00 0.00 0.00 85 1012.8
20260905140302 84 200 0.0 0.0 0.00 0.00 0.00 85 1012.8
20260905140203 84 200 0.0 0.0 0.00 0.00 0.00 85 1012.8
20260905140103 84 200 0.0 0.0 0.00 0.00 0.00 85 1012.7
20260905140005 84 200 0.0 0.0 0.00 0.00 0.00 86 1012.7
20260905135902 84 200 0.0 0.0 0.00 0.00 0.00 85 1012.8
20260905135802 84 200 0.0 0.0 0.00 0.00 0.00 86 1012.8
20260905135703 84 200 0.0 0.0 0.00 0.00 0.00 86 1012.7
20260905135602 84 200 0.0 0.0 0.00 0.00 0.00 86 1012.7
20260905135504 84 200 0.0 0.0 0.00 0.00 0.00 86 1012.7
20260905135403 84 200 0.0 0.0 0.00 0.00 0.00 86 1012.7
20260905135301 84 200 0.0 0.0 0.00 0.00 0.00 86 1012.7
20260905135203 84 200 0.0 0.0 0.00 0.00 0.00 86 1012.7
20260905135103 84 200 0.0 0.0 0.00 0.00 0.00 86 1012.7
20260905135005 84 200 0.0 0.0 0.00 0.00 0.00 86 1012.7
20260905134902 84 200 0.0 0.0 0.00 0.00 0.00 86 1012.8
20260905134803 84 200 0.0 0.0 0.00 0.00 0.00 86 1012.7
20260905134702 83 200 0.0 0.0 0.00 0.00 0.00 86 1012.7
20260905134602 83 200 0.0 0.0 0.00 0.00 0.00 87 1012.7
20260905134502 83 200 0.0 0.0 0.00 0.00 0.00 87 1012.7
20260905134356 83 200 0.0 0.0 0.00 0.00 0.00 87 1012.6
20260905134255 83 200 0.0 0.0 0.00 0.00 0.00 87 1012.7
20260905134154 83 200 0.0 0.0 0.00 0.00 0.00 87 1012.6
20260905134055 83 200 0.0 0.0 0.00 0.00 0.00 87 1012.6
20260905133953 83 200 0.0 0.0 0.00 0.00 0.00 88 1012.6
20260905133854 83 200 0.0 0.0 0.00 0.00 0.00 88 1012.6
20260905133755 83 200 0.0 0.0 0.00 0.00 0.00 88 1012.6
20260905133655 83 200 0.0 0.0 0.00 0.00 0.00 88 1012.7
20260905133553 83 200 0.0 0.0 0.00 0.00 0.00 88 1012.6
20260905133453 83 200 0.0 0.0 0.00 0.00 0.00 88 1012.6
20260905133354 83 200 0.0 0.0 0.00 0.00 0.00 88 1012.7
20260905133255 82 199 0.0 0.0 0.00 0.00 0.00 89 1012.6
20260905133154 82 199 0.0 0.0 0.00 0.00 0.00 89 1012.5
20260905133054 82 199 0.0 0.0 0.00 0.00 0.00 89 1012.6
20260905132954 82 199 0.0 0.0 0.00 0.00 0.00 89 1012.6
20260905132853 82 199 0.0 0.0 0.00 0.00 0.00 89 1012.5
20260905132752 82 199 0.0 0.0 0.00 0.00 0.00 89 1012.6
20260905132652 82 199 0.0 0.0 0.00 0.00 0.00 89 1012.5
20260905132552 82 199 0.0 0.0 0.00 0.00 0.00 89 1012.6
20260905132452 82 199 0.0 0.0 0.00 0.00 0.00 89 1012.6
20260905132352 82 199 0.0 0.0 0.00 0.00 0.00 89 1012.5
20260905132254 82 199 0.0 0.0 0.00 0.00 0.00 89 1012.6
20260905132152 82 199 0.0 0.0 0.00 0.00 0.00 89 1012.6
20260905132052 82 199 0.0 0.0 0.00 0.00 0.00 89 1012.6
20260905131952 82 199 0.0 0.0 0.00 0.00 0.00 89 1012.6
20260905131851 82 199 0.0 0.0 0.00 0.00 0.00 89 1012.6
20260905131754 82 199 0.0 0.0 0.00 0.00 0.00 89 1012.6
20260905131651 82 199 0.0 0.0 0.00 0.00 0.00 89 1012.6
20260905131552 82 199 0.0 0.0 0.00 0.00 0.00 89 1012.6
20260905131452 82 199 0.0 0.0 0.00 0.00 0.00 89 1012.6
20260905131352 82 199 0.0 0.0 0.00 0.00 0.00 89 1012.6
20260905131252 82 199 0.0 0.0 0.00 0.00 0.00 89 1012.6
20260905131153 82 199 0.0 0.0 0.00 0.00 0.00 89 1012.6
20260905131051 82 199 0.0 0.0 0.00 0.00 0.00 89 1012.6
20260905130951 81 199 0.0 0.0 0.00 0.00 0.00 90 1012.6
20260905130852 81 0 0.0 0.0 0.00 0.00 0.00 90 1012.6
20260905130752 81 0 0.0 0.0 0.00 0.00 0.00 90 1012.6
20260905130650 81 0 0.0 0.0 0.00 0.00 0.00 90 1012.6
20260905130552 81 0 0.0 0.0 0.00 0.00 0.00 90 1012.6
20260905130451 81 0 0.0 0.0 0.00 0.00 0.00 90 1012.6
20260905130351 81 0 0.0 0.0 0.00 0.00 0.00 90 1012.6
20260905130250 81 0 0.0 0.0 0.00 0.00 0.00 90 1012.6
20260905130151 81 0 0.0 0.0 0.00 0.00 0.00 90 1012.6
20260905130051 81 0 0.0 0.0 0.00 0.00 0.00 90 1012.6
20260905125949 81 0 0.0 0.0 0.00 0.00 0.00 90 1012.6
20260905125850 81 0 0.0 0.0 0.00 0.00 0.00 90 1012.6
20260905125750 81 0 0.0 0.0 0.00 0.00 0.00 90 1012.6
20260905125649 81 0 0.0 0.0 0.00 0.00 0.00 90 1012.6
20260905125551 81 0 0.0 0.0 0.00 0.00 0.00 90 1012.6
20260905125451 81 0 0.0 0.0 0.00 0.00 0.00 90 1012.6
20260905125351 81 0 0.0 0.0 0.00 0.00 0.00 90 1012.5
20260905125249 81 0 0.0 0.0 0.00 0.00 0.00 90 1012.5
20260905125151 81 0 0.0 0.0 0.00 0.00 0.00 90 1012.6
20260905125049 81 0 0.0 0.0 0.00 0.00 0.00 90 1012.6
20260905124950 81 0 0.0 0.0 0.00 0.00 0.00 90 1012.6
20260905124850 80 0 0.0 0.0 0.00 0.00 0.00 90 1012.5
20260905124750 80 0 0.0 0.0 0.00 0.00 0.00 90 1012.5
20260905124650 80 0 0.0 0.0 0.00 0.00 0.00 90 1012.5
20260905124549 80 0 0.0 0.0 0.00 0.00 0.00 90 1012.4
20260905124450 80 0 0.0 0.0 0.00 0.00 0.00 90 1012.5
20260905124349 80 0 0.0 0.0 0.00 0.00 0.00 90 1012.4
20260905124249 80 0 0.0 0.0 0.00 0.00 0.00 90 1012.4
20260905124150 80 0 0.0 0.0 0.00 0.00 0.00 90 1012.4
20260905124048 80 0 0.0 0.0 0.00 0.00 0.00 90 1012.4
20260905123949 80 0 0.0 0.0 0.00 0.00 0.00 90 1012.4
20260905123848 80 0 0.0 0.0 0.00 0.00 0.00 90 1012.4
20260905123750 80 0 0.0 0.0 0.00 0.00 0.00 90 1012.3
20260905123650 80 0 0.0 0.0 0.00 0.00 0.00 90 1012.3
20260905123549 80 0 0.0 0.0 0.00 0.00 0.00 90 1012.4
20260905123449 80 0 0.0 0.0 0.00 0.00 0.00 90 1012.3
20260905123348 80 0 0.0 0.0 0.00 0.00 0.00 90 1012.3
20260905123249 80 0 0.0 0.0 0.00 0.00 0.00 90 1012.3
20260905123148 80 0 0.0 0.0 0.00 0.00 0.00 90 1012.2
20260905123049 80 0 0.0 0.0 0.00 0.00 0.00 90 1012.3
20260905122950 80 0 0.0 0.0 0.00 0.00 0.00 90 1012.3
20260905122849 80 0 0.0 0.0 0.00 0.00 0.00 90 1012.3
20260905122748 80 0 0.0 0.0 0.00 0.00 0.00 90 1012.2
20260905122648 80 0 0.0 0.0 0.00 0.00 0.00 90 1012.2
20260905122549 80 0 0.0 0.0 0.00 0.00 0.00 90 1012.2
20260905122449 80 0 0.0 0.0 0.00 0.00 0.00 90 1012.2
20260905122349 80 0 0.0 0.0 0.00 0.00 0.00 90 1012.2
20260905122249 80 0 0.0 0.0 0.00 0.00 0.00 90 1012.1
20260905122148 80 0 0.0 0.0 0.00 0.00 0.00 90 1012.1
20260905122049 80 0 0.0 0.0 0.00 0.00 0.00 90 1012.2
20260905121948 80 0 0.0 0.0 0.00 0.00 0.00 90 1012.1
20260905121850 80 0 0.0 0.0 0.00 0.00 0.00 90 1012.1
20260905121749 80 0 0.0 0.0 0.00 0.00 0.00 90 1012.1
20260905121649 80 0 0.0 0.0 0.00 0.00 0.00 90 1012.1
20260905121548 80 0 0.0 0.0 0.00 0.00 0.00 90 1012.1
20260905121448 80 0 0.0 0.0 0.00 0.00 0.00 90 1012.0
20260905121349 80 0 0.0 0.0 0.00 0.00 0.00 90 1012.0
20260905121249 80 0 0.0 0.0 0.00 0.00 0.00 90 1012.1
20260905121150 80 0 0.0 0.0 0.00 0.00 0.00 90 1012.1
20260905121049 80 0 0.0 0.0 0.00 0.00 0.00 90 1012.0
20260905120949 80 0 0.0 0.0 0.00 0.00 0.00 91 1012.0
20260905120848 80 0 0.0 0.0 0.00 0.00 0.00 91 1012.0
20260905120747 80 0 0.0 0.0 0.00 0.00 0.00 91 1012.0
20260905120648 80 0 0.0 0.0 0.00 0.00 0.00 91 1012.0
20260905120547 80 0 0.0 0.0 0.00 0.00 0.00 91 1012.0
20260905120448 80 0 0.0 0.0 0.00 0.00 0.00 91 1012.0
20260905120347 80 0 0.0 0.0 0.00 0.00 0.00 91 1011.9
20260905120249 80 0 0.0 0.0 0.00 0.00 0.00 91 1011.9
20260905120147 80 0 0.0 0.0 0.00 0.00 0.00 91 1011.9
20260905120033 80 0 0.0 0.0 0.00 0.00 0.00 91 1011.9
20260905115932 80 0 0.0 0.0 0.00 0.00 0.00 91 1011.8
20260905115832 80 0 0.0 0.0 0.00 0.00 0.00 91 1011.9
20260905115725 80 0 0.0 0.0 0.00 0.00 0.00 91 1011.9
20260905115603 80 0 0.0 0.0 0.00 0.00 0.00 91 1011.8
20260905115504 80 0 0.0 0.0 0.00 0.00 0.00 91 1011.8
20260905115404 80 0 0.0 0.0 0.00 0.00 0.00 91 1011.7
20260905115306 80 0 0.0 0.0 0.00 0.00 0.00 91 1011.8
20260905115202 80 0 0.0 0.0 0.00 0.00 0.00 91 1011.8
20260905115102 80 0 0.0 0.0 0.00 0.00 0.00 91 1011.8
20260905115002 80 0 0.0 0.0 0.00 0.00 0.00 91 1011.7
20260905114902 80 0 0.0 0.0 0.00 0.00 0.00 91 1011.7
20260905114803 80 0 0.0 0.0 0.00 0.00 0.00 91 1011.7
20260905114704 80 0 0.0 0.0 0.00 0.00 0.00 91 1011.7
20260905114604 80 0 0.0 0.0 0.00 0.00 0.00 91 1011.7
20260905114503 80 0 0.0 0.0 0.00 0.00 0.00 91 1011.7
20260905114403 80 0 0.0 0.0 0.00 0.00 0.00 91 1011.7
20260905114302 80 0 0.0 0.0 0.00 0.00 0.00 91 1011.6
20260905114203 0 0.0 0.0 0.00 0.00 0.00 1011.7
20260905114103 80 0 0.0 0.0 0.00 0.00 0.00 91 1011.6
20260905114003 80 0 0.0 0.0 0.00 0.00 0.00 91 1011.6
20260905113903 80 0 0.0 0.0 0.00 0.00 0.00 91 1011.6
20260905113803 80 0 0.0 0.0 0.00 0.00 0.00 91 1011.5
20260905113705 80 0 0.0 0.0 0.00 0.00 0.00 91 1011.6
20260905113603 80 0 0.0 0.0 0.00 0.00 0.00 91 1011.5
20260905113505 80 0 0.0 0.0 0.00 0.00 0.00 91 1011.5
20260905113403 80 0 0.0 0.0 0.00 0.00 0.00 91 1011.5
20260905113304 80 0 0.0 0.0 0.00 0.00 0.00 91 1011.4
20260905113203 80 0 0.0 0.0 0.00 0.00 0.00 91 1011.5
20260905113103 80 0 0.0 0.0 0.00 0.00 0.00 91 1011.4
20260905113003 80 0 0.0 0.0 0.00 0.00 0.00 91 1011.5
20260905112903 80 0 0.0 0.0 0.00 0.00 0.00 90 1011.5
20260905112803 80 0 0.0 0.0 0.00 0.00 0.00 90 1011.4
20260905112703 80 0 0.0 0.0 0.00 0.00 0.00 90 1011.4
20260905112602 80 0 0.0 0.0 0.00 0.00 0.00 90 1011.4
20260905112502 80 0 0.0 0.0 0.00 0.00 0.00 90 1011.4
20260905112404 80 0 0.0 0.0 0.00 0.00 0.00 90 1011.5
20260905112305 80 0 0.0 0.0 0.00 0.00 0.00 90 1011.5
20260905112202 80 0 0.0 0.0 0.00 0.00 0.00 90 1011.5
20260905112104 80 0 0.0 0.0 0.00 0.00 0.00 91 1011.4
20260905112002 80 0 0.0 0.0 0.00 0.00 0.00 91 1011.4
20260905111902 80 0 0.0 0.0 0.00 0.00 0.00 91 1011.4
20260905111802 80 0 0.0 0.0 0.00 0.00 0.00 91 1011.4
20260905111703 80 0 0.0 0.0 0.00 0.00 0.00 91 1011.4
20260905111602 80 0 0.0 0.0 0.00 0.00 0.00 91 1011.4
20260905111503 80 0 0.0 0.0 0.00 0.00 0.00 91 1011.3
20260905111402 80 0 0.0 0.0 0.00 0.00 0.00 91 1011.4
20260905111302 80 0 0.0 0.0 0.00 0.00 0.00 91 1011.4
20260905111204 80 0 0.0 0.0 0.00 0.00 0.00 91 1011.4
20260905111103 80 0 0.0 0.0 0.00 0.00 0.00 91 1011.4
20260905111005 80 0 0.0 0.0 0.00 0.00 0.00 91 1011.4
20260905110903 80 0 0.0 0.0 0.00 0.00 0.00 91 1011.3
20260905110803 80 0 0.0 0.0 0.00 0.00 0.00 91 1011.4
20260905110704 80 0 0.0 0.0 0.00 0.00 0.00 91 1011.3
20260905110604 80 0 0.0 0.0 0.00 0.00 0.00 91 1011.3
20260905110501 80 0 0.0 0.0 0.00 0.00 0.00 91 1011.3
20260905110359 80 0 0.0 0.0 0.00 0.00 0.00 91 1011.2
20260905110257 80 0 0.0 0.0 0.00 0.00 0.00 91 1011.3
20260905110156 80 0 0.0 0.0 0.00 0.00 0.00 91 1011.3
20260905110055 80 0 0.0 0.0 0.00 0.00 0.00 91 1011.3
20260905105952 80 0 0.0 0.0 0.00 0.00 0.00 91 1011.3
20260905105852 80 0 0.0 0.0 0.00 0.00 0.00 91 1011.3
20260905105751 80 0 0.0 0.0 0.00 0.00 0.00 91 1011.2
20260905105647 80 0 0.0 0.0 0.00 0.00 0.00 91 1011.3
20260905105545 80 0 0.0 0.0 0.00 0.00 0.00 91 1011.2
20260905105447 80 0 0.0 0.0 0.00 0.00 0.00 91 1011.3
20260905105343 80 0 0.0 0.0 0.00 0.00 0.00 91 1011.2
20260905105243 80 0 0.0 0.0 0.00 0.00 0.00 91 1011.2
20260905105142 80 0 0.0 0.0 0.00 0.00 0.00 91 1011.2
20260905105043 80 0 0.0 0.0 0.00 0.00 0.00 91 1011.2
20260905104944 80 0 0.0 0.0 0.00 0.00 0.00 91 1011.2
20260905104842 80 0 0.0 0.0 0.00 0.00 0.00 91 1011.2
20260905104743 80 0 0.0 0.0 0.00 0.00 0.00 91 1011.2
20260905104642 80 0 0.0 0.0 0.00 0.00 0.00 91 1011.2
20260905104544 80 0 0.0 0.0 0.00 0.00 0.00 91 1011.2
20260905104443 80 0 0.0 0.0 0.00 0.00 0.00 91 1011.2
20260905104342 80 0 0.0 0.0 0.00 0.00 0.00 91 1011.2
20260905104243 80 0 0.0 0.0 0.00 0.00 0.00 91 1011.2
20260905104142 80 0 0.0 0.0 0.00 0.00 0.00 91 1011.2
20260905104042 80 0 0.0 0.0 0.00 0.00 0.00 91 1011.2
20260905103944 80 0 0.0 0.0 0.00 0.00 0.00 91 1011.2
20260905103844 80 0 0.0 0.0 0.00 0.00 0.00 91 1011.2
20260905103744 80 0 0.0 0.0 0.00 0.00 0.00 91 1011.2
20260905103642 80 0 0.0 0.0 0.00 0.00 0.00 91 1011.3
20260905103543 80 0 0.0 0.0 0.00 0.00 0.00 91 1011.2
20260905103444 80 0 0.0 0.0 0.00 0.00 0.00 91 1011.3
20260905103343 80 0 0.0 0.0 0.00 0.00 0.00 91 1011.2
20260905103243 80 0 0.0 0.0 0.00 0.00 0.00 90 1011.2
20260905103142 80 0 0.0 0.0 0.00 0.00 0.00 90 1011.3
20260905103043 80 0 0.0 0.0 0.00 0.00 0.00 90 1011.2
20260905102943 80 0 0.0 0.0 0.00 0.00 0.00 90 1011.2
20260905102842 80 0 0.0 0.0 0.00 0.00 0.00 90 1011.3
20260905102742 80 0 0.0 0.0 0.00 0.00 0.00 90 1011.2
20260905102643 80 0 0.0 0.0 0.00 0.00 0.00 90 1011.2
20260905102543 80 0 0.0 0.0 0.00 0.00 0.00 90 1011.2
20260905102443 80 0 0.0 0.0 0.00 0.00 0.00 90 1011.1
20260905102342 80 0 0.0 0.0 0.00 0.00 0.00 90 1011.2
20260905102243 80 0 0.0 0.0 0.00 0.00 0.00 90 1011.2
20260905102143 80 0 0.0 0.0 0.00 0.00 0.00 90 1011.1
20260905102041 80 0 0.0 0.0 0.00 0.00 0.00 90 1011.2
20260905101942 80 0 0.0 0.0 0.00 0.00 0.00 90 1011.2
20260905101844 80 0 0.0 0.0 0.00 0.00 0.00 90 1011.2
20260905101742 80 0 0.0 0.0 0.00 0.00 0.00 90 1011.2
20260905101645 80 0 0.0 0.0 0.00 0.00 0.00 90 1011.3
20260905101543 80 0 0.0 0.0 0.00 0.00 0.00 90 1011.2
20260905101443 80 0 0.0 0.0 0.00 0.00 0.00 90 1011.3
20260905101341 80 0 0.0 0.0 0.00 0.00 0.00 90 1011.3
20260905101243 80 0 0.0 0.0 0.00 0.00 0.00 90 1011.3
20260905101143 80 0 0.0 0.0 0.00 0.00 0.00 90 1011.3
20260905101042 80 0 0.0 0.0 0.00 0.00 0.00 90 1011.3
20260905100942 80 0 0.0 0.0 0.00 0.00 0.00 90 1011.3
20260905100841 80 0 0.0 0.0 0.00 0.00 0.00 90 1011.3
20260905100743 80 0 0.0 0.0 0.00 0.00 0.00 90 1011.3
20260905100643 80 0 0.0 0.0 0.00 0.00 0.00 90 1011.2
20260905100542 80 0 0.0 0.0 0.00 0.00 0.00 90 1011.3
20260905100443 80 0 0.0 0.0 0.00 0.00 0.00 90 1011.2
20260905100341 80 0 0.0 0.0 0.00 0.00 0.00 90 1011.2
20260905100242 80 0 0.0 0.0 0.00 0.00 0.00 90 1011.2
20260905100142 80 0 0.0 0.0 0.00 0.00 0.00 90 1011.2
20260905100034 80 0 0.0 0.0 0.00 0.00 0.00 90 1011.1
20260905095932 80 0 0.0 0.0 0.00 0.00 0.00 90 1011.2
20260905095833 80 0 0.0 0.0 0.00 0.00 0.00 90 1011.1
20260905095732 80 0 0.0 0.0 0.00 0.00 0.00 90 1011.2
20260905095632 80 0 0.0 0.0 0.00 0.00 0.00 90 1011.2
20260905095532 80 0 0.0 0.0 0.00 0.00 0.00 90 1011.2
20260905095432 80 0 0.0 0.0 0.00 0.00 0.00 90 1011.3
20260905095332 80 0 0.0 0.0 0.00 0.00 0.00 90 1011.2
20260905095232 80 0 0.0 0.0 0.00 0.00 0.00 90 1011.3
20260905095131 80 0 0.0 0.0 0.00 0.00 0.00 90 1011.3
20260905095033 0 0.0 0.0 0.00 0.00 0.00 1011.2
20260905094933 0 0.0 0.0 0.00 0.00 0.00 1011.2
20260905094832 0 0.0 0.0 0.00 0.00 0.00 1011.2
20260905094732 0 0.0 0.0 0.00 0.00 0.00 1011.2
20260905094632 0 0.0 0.0 0.00 0.00 0.00 1011.2
20260905094532 0 0.0 0.0 0.00 0.00 0.00 1011.2
20260905094432 0 0.0 0.0 0.00 0.00 0.00 1011.2
20260905094332 0 0.0 0.0 0.00 0.00 0.00 1011.2
20260905094233 0 0.0 0.0 0.00 0.00 0.00 1011.2
20260905094132 0 0.0 0.0 0.00 0.00 0.00 1011.2
20260905094004 0 0.0 0.0 0.00 0.00 0.00 1011.2
20260905093904 0 0.0 0.0 0.00 0.00 0.00 1011.2
20260905093803 0 0.0 0.0 0.00 0.00 0.00 1011.1
20260905093704 80 0 0.0 0.0 0.00 0.00 0.00 89 1011.2
20260905093603 80 0 0.0 0.0 0.00 0.00 0.00 89 1011.2
20260905093504 80 0 0.0 0.0 0.00 0.00 0.00 89 1011.2
20260905093403 80 0 0.0 0.0 0.00 0.00 0.00 89 1011.1
20260905093304 80 0 0.0 0.0 0.00 0.00 0.00 89 1011.2
20260905093204 80 0 0.0 0.0 0.00 0.00 0.00 89 1011.1
20260905093104 80 0 0.0 0.0 0.00 0.00 0.00 89 1011.2
20260905093005 80 0 0.0 0.0 0.00 0.00 0.00 89 1011.2
20260905092903 80 0 0.0 0.0 0.00 0.00 0.00 89 1011.1
20260905092803 80 0 0.0 0.0 0.00 0.00 0.00 89 1011.2
20260905092702 80 0 0.0 0.0 0.00 0.00 0.00 89 1011.2
20260905092604 80 0 0.0 0.0 0.00 0.00 0.00 89 1011.2
20260905092504 0 0 0.0 0.0 0.00 0.00 0.00 1011.2
20260905092403 0 0.0 0.0 0.00 0.00 0.00 1011.3
20260905092306 0 0.0 0.0 0.00 0.00 0.00 1011.2
20260905092203 0 0.0 0.0 0.00 0.00 0.00 1011.3
20260905092103 81 0 0.0 0.0 0.00 0.00 0.00 89 1011.2
20260905092004 81 0 0.0 0.0 0.00 0.00 0.00 89 1011.3
20260905091903 81 0 0.0 0.0 0.00 0.00 0.00 89 1011.3
20260905091803 81 0 0.0 0.0 0.00 0.00 0.00 89 1011.2
20260905091703 81 0 0.0 0.0 0.00 0.00 0.00 89 1011.2
20260905091603 81 0 0.0 0.0 0.00 0.00 0.00 89 1011.3
20260905091503 81 0 0.0 0.0 0.00 0.00 0.00 89 1011.3
20260905091403 81 0 0.0 0.0 0.00 0.00 0.00 89 1011.2
20260905091304 81 0 0.0 0.0 0.00 0.00 0.00 89 1011.2
20260905091203 81 0 0.0 0.0 0.00 0.01 0.00 89 1011.2
20260905091100 81 0 0.0 0.0 0.00 0.01 0.00 89 1011.2
20260905090957 81 0 0.0 0.0 0.00 0.01 0.00 89 1011.2
20260905090853 81 0 0.0 0.0 0.00 0.01 0.00 89 1011.2
20260905090751 81 0 0.0 0.0 0.00 0.01 0.00 89 1011.2
20260905090650 81 0 0.0 0.0 0.00 0.01 0.00 89 1011.2
20260905090542 81 0 0.0 0.0 0.00 0.01 0.00 89 1011.3
20260905090440 81 0 0.0 0.0 0.00 0.01 0.00 89 1011.2
20260905090336 81 0 0.0 0.0 0.00 0.01 0.00 89 1011.3
20260905090237 81 0 0.0 0.0 0.00 0.01 0.00 89 1011.2
20260905090134 81 0 0.0 0.0 0.00 0.01 0.00 89 1011.2
20260905090034 81 0 0.0 0.0 0.00 0.01 0.00 89 1011.2
20260905085931 81 0 0.0 0.0 0.00 0.01 0.00 89 1011.2
20260905085831 81 0 0.0 0.0 0.00 0.01 0.00 89 1011.2
20260905085731 81 0 0.0 0.0 0.00 0.01 0.00 89 1011.2
20260905085629 81 0 0.0 0.0 0.00 0.01 0.00 89 1011.2
20260905085529 80 0 0.0 0.0 0.00 0.01 0.00 89 1011.2
20260905085427 80 0 0.0 0.0 0.00 0.01 0.00 89 1011.2
20260905085328 80 0 0.0 0.0 0.00 0.01 0.00 89 1011.1
20260905085227 81 0 0.0 0.0 0.00 0.01 0.00 89 1011.1
20260905085127 81 0 0.0 0.0 0.00 0.02 0.00 89 1011.2
20260905085029 81 0 0.0 0.0 0.00 0.02 0.00 89 1011.1
20260905084929 81 0 0.0 0.0 0.00 0.02 0.00 89 1011.1
20260905084828 81 0 0.0 0.0 0.00 0.02 0.00 89 1011.1
20260905084729 81 0 0.0 0.0 0.00 0.02 0.00 89 1011.1
20260905084629 81 0 0.0 0.0 0.00 0.02 0.00 89 1011.1
20260905084528 81 0 0.0 0.0 0.00 0.02 0.00 89 1011.0
20260905084429 81 0 0.0 0.0 0.00 0.02 0.00 90 1011.0
20260905084328 81 0 0.0 0.0 0.00 0.02 0.00 90 1011.0
20260905084228 81 0 0.0 0.0 0.00 0.02 0.00 90 1011.0
20260905084127 81 0 0.0 0.0 0.00 0.02 0.00 90 1011.0
20260905084027 81 0 0.0 0.0 0.00 0.02 0.00 90 1011.0
20260905083927 81 0 0.0 0.0 0.00 0.02 0.00 90 1011.0
20260905083829 81 0 0.0 0.0 0.00 0.02 0.00 90 1010.9
20260905083730 80 0 0.0 0.0 0.00 0.02 0.00 90 1010.9
20260905083628 80 0 0.0 0.0 0.00 0.02 0.00 90 1010.9
20260905083527 80 0 0.0 0.0 0.00 0.02 0.00 90 1010.9
20260905083428 80 0 0.0 0.0 0.00 0.02 0.00 90 1010.9
20260905083330 80 0 0.0 0.0 0.00 0.02 0.00 90 1011.0
20260905083227 80 0 0.0 0.0 0.00 0.02 0.00 90 1010.9
20260905083128 80 0 0.0 0.0 0.00 0.02 0.00 90 1011.0
20260905083027 80 0 0.0 0.0 0.00 0.02 0.00 90 1010.9
20260905082929 80 0 0.0 0.0 0.00 0.02 0.00 90 1010.9
20260905082828 80 0 0.0 0.0 0.00 0.02 0.00 90 1010.9
20260905082728 81 0 0.0 0.0 0.00 0.02 0.00 89 1010.9
20260905082611 81 0 0.0 0.0 0.00 0.02 0.00 89 1010.9
20260905082505 81 0 0.0 0.0 0.00 0.02 0.00 89 1010.9
20260905082403 81 0 0.0 0.0 0.00 0.02 0.00 89 1011.0
20260905082307 81 0 0.0 0.0 0.00 0.02 0.00 89 1010.9
20260905082203 81 0 0.0 0.0 0.00 0.02 0.00 89 1011.0
20260905082103 81 0 0.0 0.0 0.00 0.02 0.00 89 1010.9
20260905082003 81 0 0.0 0.0 0.00 0.02 0.00 89 1010.9
20260905081904 81 0 0.0 0.0 0.00 0.02 0.00 89 1010.9
20260905081802 81 0 0.0 0.0 0.00 0.02 0.00 89 1011.0
20260905081702 81 0 0.0 0.0 0.00 0.02 0.00 89 1010.9
20260905081603 81 0 0.0 0.0 0.00 0.02 0.00 89 1011.0
20260905081502 81 0 0.0 0.0 0.00 0.02 0.00 89 1011.0
20260905081402 81 0 0.0 0.0 0.00 0.02 0.00 89 1010.9
20260905081303 81 0 0.0 0.0 0.00 0.02 0.00 89 1011.0
20260905081203 81 0 0.0 0.0 0.00 0.02 0.00 89 1011.0
20260905081102 81 0 0.0 0.0 0.00 0.02 0.00 89 1010.9
20260905081003 81 0 0.0 0.0 0.00 0.02 0.00 89 1011.0
20260905080903 81 0 0.0 0.0 0.00 0.02 0.00 89 1011.0
20260905080803 81 0 0.0 0.0 0.00 0.02 0.00 89 1010.9
20260905080702 81 0 0.0 0.0 0.00 0.02 0.00 89 1011.0
20260905080603 81 0 0.0 0.0 0.00 0.02 0.00 89 1011.0
20260905080505 81 0 0.0 0.0 0.00 0.02 0.00 89 1011.0
20260905080404 81 0 0.0 0.0 0.00 0.02 0.00 88 1011.0